Time,TemperatureF,DewpointF,PressureIn,WindDirection,WindDirectionDegrees,WindSpeedMPH,WindSpeedGustMPH,Humidity,HourlyPrecipIn,Conditions,Clouds,dailyrainin,SoftwareType,DateUTC
2013-10-14 00:00:00,67.1,65.3,30.08,NNE,22,0.0,7.0,94,0.00,,---,0.00,VWS V14.01,2013-10-14 04:00:00,
2013-10-14 00:10:00,67.1,65.6,30.08,NE,45,0.0,3.0,95,0.00,,---,0.00,VWS V14.01,2013-10-14 04:10:00,
2013-10-14 00:20:00,66.9,65.7,30.07,NE,45,0.0,6.0,96,0.00,,---,0.00,VWS V14.01,2013-10-14 04:20:00,
2013-10-14 00:30:00,66.8,65.6,30.07,NNE,22,1.0,5.0,96,0.00,,---,0.00,VWS V14.01,2013-10-14 04:30:00,
2013-10-14 00:40:00,66.6,65.7,30.07,NNE,22,1.0,6.0,97,0.00,,---,0.00,VWS V14.01,2013-10-14 04:40:00,
2013-10-14 00:50:00,66.4,65.8,30.07,NE,45,0.0,1.0,98,0.00,,---,0.00,VWS V14.01,2013-10-14 04:50:00,
2013-10-14 01:00:00,66.3,65.7,30.07,NE,45,0.0,0.0,98,0.00,,---,0.00,VWS V14.01,2013-10-14 05:00:00,
2013-10-14 01:10:00,66.1,65.8,30.07,NE,45,0.0,3.0,99,0.00,,---,0.00,VWS V14.01,2013-10-14 05:10:00,
2013-10-14 01:20:00,66.0,65.7,30.07,NE,45,0.0,0.0,99,0.00,,---,0.00,VWS V14.01,2013-10-14 05:20:00,
2013-10-14 01:30:00,65.8,65.8,30.07,NNE,22,0.0,3.0,100,0.01,,---,0.01,VWS V14.01,2013-10-14 05:30:00,
2013-10-14 01:40:00,65.8,65.8,30.07,NW,315,0.0,1.0,100,0.01,,---,0.01,VWS V14.01,2013-10-14 05:40:00,
2013-10-14 01:50:00,65.6,65.6,30.06,NE,45,0.0,3.0,100,0.01,,---,0.01,VWS V14.01,2013-10-14 05:50:00,
2013-10-14 02:00:00,65.6,65.6,30.06,NE,45,0.0,2.0,100,0.01,,---,0.01,VWS V14.01,2013-10-14 06:00:00,
2013-10-14 02:10:00,65.6,65.6,30.06,NNE,22,1.0,6.0,100,0.01,,---,0.01,VWS V14.01,2013-10-14 06:10:00,
2013-10-14 02:20:00,65.6,65.6,30.06,NNE,22,1.0,5.0,100,0.01,,---,0.01,VWS V14.01,2013-10-14 06:20:00,
2013-10-14 02:30:00,65.6,65.6,30.05,NE,45,1.0,7.0,100,0.01,,---,0.01,VWS V14.01,2013-10-14 06:30:00,
2013-10-14 02:40:00,65.6,65.6,30.05,NNE,22,1.0,8.0,100,0.00,,---,0.01,VWS V14.01,2013-10-14 06:40:00,
2013-10-14 02:50:00,65.6,65.6,30.05,NNE,22,1.0,6.0,100,0.00,,---,0.01,VWS V14.01,2013-10-14 06:50:00,
2013-10-14 03:00:00,65.6,65.6,30.05,NNE,22,0.0,2.0,100,0.00,,---,0.01,VWS V14.01,2013-10-14 07:00:00,
2013-10-14 03:10:00,65.6,65.6,30.05,NNE,22,0.0,5.0,100,0.00,,---,0.01,VWS V14.01,2013-10-14 07:10:00,
2013-10-14 03:20:00,65.6,65.6,30.05,NNE,22,1.0,5.0,100,0.00,,---,0.01,VWS V14.01,2013-10-14 07:20:00,
2013-10-14 03:30:00,65.6,65.6,30.05,NE,45,1.0,6.0,100,0.00,,---,0.01,VWS V14.01,2013-10-14 07:30:00,
2013-10-14 03:40:00,65.6,65.6,30.05,NNE,22,1.0,5.0,100,0.00,,---,0.01,VWS V14.01,2013-10-14 07:40:00,
2013-10-14 03:50:00,65.6,65.6,30.05,ENE,68,0.0,5.0,100,0.00,,---,0.01,VWS V14.01,2013-10-14 07:50:00,
2013-10-14 04:00:00,65.6,65.6,30.05,NE,45,0.0,3.0,100,0.00,,---,0.01,VWS V14.01,2013-10-14 08:00:00,
2013-10-14 04:10:00,65.6,65.6,30.05,NE,45,1.0,6.0,100,0.00,,---,0.01,VWS V14.01,2013-10-14 08:10:00,
2013-10-14 04:20:00,65.8,65.8,30.05,ENE,68,0.0,4.0,100,0.00,,---,0.01,VWS V14.01,2013-10-14 08:20:00,
2013-10-14 04:30:00,65.8,65.8,30.05,NE,45,1.0,6.0,100,0.00,,---,0.01,VWS V14.01,2013-10-14 08:30:00,
2013-10-14 04:40:00,65.8,65.8,30.05,NE,45,1.0,5.0,100,0.00,,---,0.01,VWS V14.01,2013-10-14 08:40:00,
2013-10-14 04:50:00,65.8,65.8,30.05,North,0,1.0,5.0,100,0.00,,---,0.01,VWS V14.01,2013-10-14 08:50:00,
2013-10-14 05:00:00,65.8,65.8,30.06,NNE,22,1.0,6.0,100,0.00,,---,0.01,VWS V14.01,2013-10-14 09:00:00,
2013-10-14 05:10:00,65.8,65.8,30.06,NE,45,1.0,11.0,100,0.00,,---,0.01,VWS V14.01,2013-10-14 09:10:00,
2013-10-14 05:20:00,65.8,65.8,30.06,NNE,22,1.0,6.0,100,0.00,,---,0.01,VWS V14.01,2013-10-14 09:20:00,
2013-10-14 05:30:00,65.6,65.6,30.07,NNE,22,2.0,7.0,100,0.00,,---,0.01,VWS V14.01,2013-10-14 09:30:00,
2013-10-14 05:40:00,65.6,65.6,30.07,NE,45,1.0,5.0,100,0.00,,---,0.01,VWS V14.01,2013-10-14 09:40:00,
2013-10-14 05:50:00,65.6,65.6,30.07,NE,45,1.0,5.0,100,0.00,,---,0.01,VWS V14.01,2013-10-14 09:50:00,
2013-10-14 06:00:00,65.6,65.6,30.07,ENE,68,2.0,7.0,100,0.01,,---,0.02,VWS V14.01,2013-10-14 10:00:00,
2013-10-14 06:10:00,65.6,65.6,30.07,NE,45,1.0,6.0,100,0.01,,---,0.02,VWS V14.01,2013-10-14 10:10:00,
2013-10-14 06:20:00,65.5,65.5,30.07,NE,45,3.0,11.0,100,0.01,,---,0.02,VWS V14.01,2013-10-14 10:20:00,
2013-10-14 06:30:00,65.6,65.6,30.07,NNE,22,2.0,7.0,100,0.00,,---,0.01,VWS V14.01,2013-10-14 10:30:00,
2013-10-14 06:37:00,65.5,65.5,30.07,NE,45,3.0,11.0,100,0.01,,---,0.02,VWS V14.01,2013-10-14 10:37:00,
2013-10-14 06:38:00,65.5,65.5,30.07,NNE,28,0.0,3.0,100,0.01,,---,0.02,VWS V14.01,2013-10-14 10:38:00,
2013-10-14 06:39:00,65.5,65.5,30.07,NNE,28,0.0,3.0,100,0.01,,---,0.02,VWS V14.01,2013-10-14 10:39:00,
2013-10-14 06:40:00,65.5,65.5,30.07,NNE,28,0.0,3.0,100,0.01,,---,0.02,VWS V14.01,2013-10-14 10:40:00,
2013-10-14 06:41:00,65.5,65.5,30.07,NNE,30,0.0,0.0,100,0.01,,---,0.02,VWS V14.01,2013-10-14 10:41:00,
2013-10-14 06:42:00,65.5,65.5,30.07,NNE,30,0.0,0.0,100,0.01,,---,0.02,VWS V14.01,2013-10-14 10:42:00,
2013-10-14 06:43:00,65.5,65.5,30.07,NE,42,3.0,6.0,100,0.01,,---,0.02,VWS V14.01,2013-10-14 10:43:00,
2013-10-14 06:44:00,65.5,65.5,30.07,ENE,69,2.0,9.0,100,0.01,,---,0.02,VWS V14.01,2013-10-14 10:44:00,
2013-10-14 06:45:00,65.5,65.5,30.07,NE,54,2.0,9.0,100,0.01,,---,0.02,VWS V14.01,2013-10-14 10:45:00,
2013-10-14 06:46:00,65.5,65.5,30.07,NE,54,0.0,9.0,100,0.01,,---,0.02,VWS V14.01,2013-10-14 10:46:00,
2013-10-14 06:47:00,65.3,65.3,30.07,NE,54,0.0,9.0,100,0.01,,---,0.02,VWS V14.01,2013-10-14 10:47:00,
2013-10-14 06:48:00,65.3,65.3,30.07,ENE,58,2.0,9.0,100,0.01,,---,0.02,VWS V14.01,2013-10-14 10:48:00,
2013-10-14 06:49:00,65.3,65.3,30.07,ENE,58,0.0,9.0,100,0.01,,---,0.02,VWS V14.01,2013-10-14 10:49:00,
2013-10-14 06:50:00,65.3,65.3,30.07,East,80,3.0,9.0,100,0.01,,---,0.02,VWS V14.01,2013-10-14 10:50:00,
2013-10-14 06:51:00,65.3,65.3,30.07,NNE,28,1.0,4.0,100,0.01,,---,0.02,VWS V14.01,2013-10-14 10:51:00,
2013-10-14 06:52:00,65.3,65.3,30.07,NNE,28,0.0,4.0,100,0.01,,---,0.02,VWS V14.01,2013-10-14 10:52:00,
2013-10-14 06:53:00,65.3,65.3,30.07,NE,45,4.0,4.0,100,0.01,,---,0.02,VWS V14.01,2013-10-14 10:53:00,
2013-10-14 06:54:00,65.3,65.3,30.07,ENE,62,3.0,6.0,100,0.01,,---,0.02,VWS V14.01,2013-10-14 10:54:00,
2013-10-14 06:55:00,65.3,65.3,30.07,ENE,72,6.0,10.0,100,0.01,,---,0.02,VWS V14.01,2013-10-14 10:55:00,
2013-10-14 06:56:00,65.3,65.3,30.07,NE,44,3.0,10.0,100,0.01,,---,0.02,VWS V14.01,2013-10-14 10:56:00,
2013-10-14 06:57:00,65.3,65.3,30.07,NNE,25,0.0,10.0,100,0.01,,---,0.02,VWS V14.01,2013-10-14 10:57:00,
2013-10-14 06:58:00,65.3,65.3,30.07,East,79,1.0,10.0,100,0.01,,---,0.02,VWS V14.01,2013-10-14 10:58:00,
2013-10-14 06:59:00,65.3,65.3,30.07,NE,41,0.0,10.0,100,0.01,,---,0.02,VWS V14.01,2013-10-14 10:59:00,
2013-10-14 07:00:00,65.3,65.3,30.07,East,88,0.0,10.0,100,0.01,,---,0.02,VWS V14.01,2013-10-14 11:00:00,
2013-10-14 07:01:00,65.3,65.3,30.07,NNE,30,0.0,0.0,100,0.00,,---,0.02,VWS V14.01,2013-10-14 11:01:00,
2013-10-14 07:02:00,65.3,65.3,30.07,NE,56,2.0,6.0,100,0.00,,---,0.02,VWS V14.01,2013-10-14 11:02:00,
2013-10-14 07:03:00,65.3,65.3,30.07,NE,40,0.0,6.0,100,0.00,,---,0.02,VWS V14.01,2013-10-14 11:03:00,
2013-10-14 07:04:00,65.3,65.3,30.07,North,3,0.0,6.0,100,0.00,,---,0.02,VWS V14.01,2013-10-14 11:04:00,
2013-10-14 07:05:00,65.3,65.3,30.07,NNE,20,0.0,6.0,100,0.00,,---,0.02,VWS V14.01,2013-10-14 11:05:00,
2013-10-14 07:06:00,65.3,65.3,30.07,ESE,103,3.0,6.0,100,0.00,,---,0.02,VWS V14.01,2013-10-14 11:06:00,
2013-10-14 07:07:00,65.3,65.3,30.07,NE,56,2.0,6.0,100,0.00,,---,0.02,VWS V14.01,2013-10-14 11:07:00,
2013-10-14 07:08:00,65.3,65.3,30.07,North,8,2.0,6.0,100,0.00,,---,0.02,VWS V14.01,2013-10-14 11:08:00,
2013-10-14 07:09:00,65.3,65.3,30.07,ENE,61,3.0,7.0,100,0.00,,---,0.02,VWS V14.01,2013-10-14 11:09:00,
2013-10-14 07:10:00,65.3,65.3,30.07,NNE,18,0.0,7.0,100,0.00,,---,0.02,VWS V14.01,2013-10-14 11:10:00,
2013-10-14 07:11:00,65.3,65.3,30.07,NNE,13,2.0,3.0,100,0.00,,---,0.02,VWS V14.01,2013-10-14 11:11:00,
2013-10-14 07:12:00,65.3,65.3,30.07,NE,47,0.0,3.0,100,0.00,,---,0.02,VWS V14.01,2013-10-14 11:12:00,
2013-10-14 07:13:00,65.2,65.2,30.07,NE,47,0.0,3.0,100,0.00,,---,0.02,VWS V14.01,2013-10-14 11:13:00,
2013-10-14 07:14:00,65.2,65.2,30.07,NE,47,0.0,3.0,100,0.00,,---,0.02,VWS V14.01,2013-10-14 11:14:00,
2013-10-14 07:15:00,65.2,65.2,30.08,NE,42,0.0,7.0,100,0.00,,---,0.02,VWS V14.01,2013-10-14 11:15:00,
2013-10-14 07:16:00,65.2,65.2,30.08,NE,51,4.0,7.0,100,0.00,,---,0.02,VWS V14.01,2013-10-14 11:16:00,
2013-10-14 07:17:00,65.2,65.2,30.08,NNE,27,1.0,7.0,100,0.00,,---,0.02,VWS V14.01,2013-10-14 11:17:00,
2013-10-14 07:18:00,65.2,65.2,30.08,NE,44,3.0,7.0,100,0.00,,---,0.02,VWS V14.01,2013-10-14 11:18:00,
2013-10-14 07:19:00,65.2,65.2,30.08,East,83,0.0,7.0,100,0.00,,---,0.02,VWS V14.01,2013-10-14 11:19:00,
2013-10-14 07:20:00,65.2,65.2,30.08,NE,34,3.0,7.0,100,0.00,,---,0.02,VWS V14.01,2013-10-14 11:20:00,
2013-10-14 07:21:00,65.2,65.2,30.08,NE,42,1.0,6.0,100,0.00,,---,0.02,VWS V14.01,2013-10-14 11:21:00,
2013-10-14 07:22:00,65.2,65.2,30.08,NNE,23,1.0,6.0,100,0.00,,---,0.02,VWS V14.01,2013-10-14 11:22:00,
2013-10-14 07:23:00,65.2,65.2,30.08,NNE,23,0.0,6.0,100,0.00,,---,0.02,VWS V14.01,2013-10-14 11:23:00,
2013-10-14 07:24:00,65.2,65.2,30.08,NNE,23,0.0,6.0,100,0.00,,---,0.02,VWS V14.01,2013-10-14 11:24:00,
2013-10-14 07:25:00,65.2,65.2,30.08,NNE,30,0.0,6.0,100,0.00,,---,0.02,VWS V14.01,2013-10-14 11:25:00,
2013-10-14 07:26:00,65.2,65.2,30.08,NNE,30,2.0,6.0,100,0.00,,---,0.02,VWS V14.01,2013-10-14 11:26:00,
2013-10-14 07:27:00,65.2,65.2,30.08,NNE,30,0.0,6.0,100,0.00,,---,0.02,VWS V14.01,2013-10-14 11:27:00,
2013-10-14 07:28:00,65.2,65.2,30.08,NNE,30,0.0,6.0,100,0.00,,---,0.02,VWS V14.01,2013-10-14 11:28:00,
2013-10-14 07:29:00,65.2,65.2,30.08,ENE,64,3.0,6.0,100,0.00,,---,0.02,VWS V14.01,2013-10-14 11:29:00,
2013-10-14 07:30:00,65.2,65.2,30.08,NE,40,0.0,6.0,100,0.00,,---,0.02,VWS V14.01,2013-10-14 11:30:00,
2013-10-14 07:31:00,65.2,65.2,30.08,NE,40,0.0,0.0,100,0.00,,---,0.02,VWS V14.01,2013-10-14 11:31:00,
2013-10-14 07:32:00,65.2,65.2,30.08,NE,40,0.0,2.0,100,0.00,,---,0.02,VWS V14.01,2013-10-14 11:32:00,
2013-10-14 07:33:00,65.2,65.2,30.08,NE,40,0.0,2.0,100,0.00,,---,0.02,VWS V14.01,2013-10-14 11:33:00,
2013-10-14 07:34:00,65.2,65.2,30.08,NNE,28,0.0,3.0,100,0.00,,---,0.02,VWS V14.01,2013-10-14 11:34:00,
2013-10-14 07:35:00,65.2,65.2,30.08,North,10,0.0,3.0,100,0.00,,---,0.02,VWS V14.01,2013-10-14 11:35:00,
2013-10-14 07:36:00,65.2,65.2,30.08,NE,41,2.0,3.0,100,0.00,,---,0.02,VWS V14.01,2013-10-14 11:36:00,
2013-10-14 07:37:00,65.2,65.2,30.08,NNE,30,0.0,10.0,100,0.00,,---,0.02,VWS V14.01,2013-10-14 11:37:00,
2013-10-14 07:38:00,65.2,65.2,30.08,NNE,30,1.0,10.0,100,0.00,,---,0.02,VWS V14.01,2013-10-14 11:38:00,
2013-10-14 07:39:00,65.2,65.2,30.08,NNE,24,0.0,10.0,100,0.00,,---,0.02,VWS V14.01,2013-10-14 11:39:00,
2013-10-14 07:40:00,65.2,65.2,30.08,NE,34,0.0,10.0,100,0.00,,---,0.02,VWS V14.01,2013-10-14 11:40:00,
2013-10-14 07:41:00,65.2,65.2,30.08,ESE,116,0.0,1.0,100,0.00,,---,0.02,VWS V14.01,2013-10-14 11:41:00,
2013-10-14 07:42:00,65.2,65.2,30.08,East,80,0.0,1.0,100,0.00,,---,0.02,VWS V14.01,2013-10-14 11:42:00,
2013-10-14 07:43:00,65.2,65.2,30.08,NNE,28,4.0,4.0,100,0.00,,---,0.02,VWS V14.01,2013-10-14 11:43:00,
2013-10-14 07:44:00,65.2,65.2,30.08,NE,34,4.0,8.0,100,0.00,,---,0.02,VWS V14.01,2013-10-14 11:44:00,
2013-10-14 07:45:00,65.2,65.2,30.08,NNE,21,0.0,8.0,100,0.00,,---,0.02,VWS V14.01,2013-10-14 11:45:00,
2013-10-14 07:46:00,65.2,65.2,30.08,ENE,68,5.0,8.0,100,0.00,,---,0.02,VWS V14.01,2013-10-14 11:46:00,
2013-10-14 07:47:00,65.2,65.2,30.08,NE,55,2.0,8.0,100,0.00,,---,0.02,VWS V14.01,2013-10-14 11:47:00,
2013-10-14 07:48:00,65.2,65.2,30.08,NE,55,0.0,8.0,100,0.00,,---,0.02,VWS V14.01,2013-10-14 11:48:00,
2013-10-14 07:49:00,65.2,65.2,30.08,ENE,78,4.0,8.0,100,0.00,,---,0.02,VWS V14.01,2013-10-14 11:49:00,
2013-10-14 07:50:00,65.2,65.2,30.08,NNE,24,0.0,8.0,100,0.00,,---,0.02,VWS V14.01,2013-10-14 11:50:00,
2013-10-14 07:51:00,65.2,65.2,30.08,NNE,23,0.0,1.0,100,0.00,,---,0.02,VWS V14.01,2013-10-14 11:51:00,
2013-10-14 07:52:00,65.2,65.2,30.08,ENE,59,3.0,3.0,100,0.00,,---,0.02,VWS V14.01,2013-10-14 11:52:00,
2013-10-14 07:53:00,65.2,65.2,30.08,ENE,59,0.0,3.0,100,0.00,,---,0.02,VWS V14.01,2013-10-14 11:53:00,
2013-10-14 07:54:00,65.2,65.2,30.08,NNE,28,2.0,4.0,100,0.00,,---,0.02,VWS V14.01,2013-10-14 11:54:00,
2013-10-14 07:55:00,65.2,65.2,30.08,NNE,25,3.0,4.0,100,0.00,,---,0.02,VWS V14.01,2013-10-14 11:55:00,
2013-10-14 07:56:00,65.2,65.2,30.08,NE,45,2.0,4.0,100,0.00,,---,0.02,VWS V14.01,2013-10-14 11:56:00,
2013-10-14 07:57:00,65.2,65.2,30.08,NNE,30,2.0,5.0,100,0.00,,---,0.02,VWS V14.01,2013-10-14 11:57:00,
2013-10-14 07:58:00,65.2,65.2,30.08,NE,45,0.0,5.0,100,0.00,,---,0.02,VWS V14.01,2013-10-14 11:58:00,
2013-10-14 07:59:00,65.2,65.2,30.08,NE,41,3.0,5.0,100,0.00,,---,0.02,VWS V14.01,2013-10-14 11:59:00,
2013-10-14 08:00:00,65.2,65.2,30.08,NE,54,2.0,5.0,100,0.00,,---,0.02,VWS V14.01,2013-10-14 12:00:00,
2013-10-14 08:01:00,65.2,65.2,30.08,NNE,28,2.0,5.0,100,0.00,,---,0.02,VWS V14.01,2013-10-14 12:01:00,
2013-10-14 08:02:00,65.0,65.0,30.08,ENE,61,0.0,5.0,100,0.00,,---,0.02,VWS V14.01,2013-10-14 12:02:00,
2013-10-14 08:03:00,65.0,65.0,30.08,East,85,3.0,5.0,100,0.00,,---,0.02,VWS V14.01,2013-10-14 12:03:00,
2013-10-14 08:04:00,65.0,65.0,30.08,NNE,16,2.0,5.0,100,0.00,,---,0.02,VWS V14.01,2013-10-14 12:04:00,
2013-10-14 08:05:00,65.0,65.0,30.08,NE,35,1.0,5.0,100,0.00,,---,0.02,VWS V14.01,2013-10-14 12:05:00,
2013-10-14 08:06:00,65.0,65.0,30.08,NE,45,1.0,5.0,100,0.00,,---,0.02,VWS V14.01,2013-10-14 12:06:00,
2013-10-14 08:07:00,65.0,65.0,30.08,ENE,64,2.0,5.0,100,0.00,,---,0.02,VWS V14.01,2013-10-14 12:07:00,
2013-10-14 08:08:00,65.0,65.0,30.08,NNE,27,2.0,5.0,100,0.00,,---,0.02,VWS V14.01,2013-10-14 12:08:00,
2013-10-14 08:09:00,65.0,65.0,30.08,NNE,31,4.0,12.0,100,0.00,,---,0.02,VWS V14.01,2013-10-14 12:09:00,
2013-10-14 08:10:00,65.0,65.0,30.08,NE,35,2.0,12.0,100,0.00,,---,0.02,VWS V14.01,2013-10-14 12:10:00,
2013-10-14 08:11:00,65.0,65.0,30.08,ENE,65,6.0,6.0,100,0.00,,---,0.02,VWS V14.01,2013-10-14 12:11:00,
2013-10-14 08:12:00,65.0,65.0,30.08,NNE,16,7.0,7.0,100,0.00,,---,0.02,VWS V14.01,2013-10-14 12:12:00,
2013-10-14 08:13:00,65.0,65.0,30.08,ENE,66,1.0,7.0,100,0.00,,---,0.02,VWS V14.01,2013-10-14 12:13:00,
2013-10-14 08:14:00,65.0,65.0,30.08,ESE,116,2.0,7.0,100,0.00,,---,0.02,VWS V14.01,2013-10-14 12:14:00,
2013-10-14 08:15:00,65.0,65.0,30.09,NE,55,2.0,7.0,100,0.00,,---,0.02,VWS V14.01,2013-10-14 12:15:00,
2013-10-14 08:16:00,65.0,65.0,30.09,NE,56,6.0,7.0,100,0.00,,---,0.02,VWS V14.01,2013-10-14 12:16:00,
2013-10-14 08:17:00,65.0,65.0,30.09,ENE,58,1.0,7.0,100,0.00,,---,0.02,VWS V14.01,2013-10-14 12:17:00,
2013-10-14 08:18:00,65.0,65.0,30.09,ENE,58,0.0,7.0,100,0.00,,---,0.02,VWS V14.01,2013-10-14 12:18:00,
2013-10-14 08:19:00,65.0,65.0,30.09,ENE,59,2.0,7.0,100,0.00,,---,0.02,VWS V14.01,2013-10-14 12:19:00,
2013-10-14 08:20:00,65.0,65.0,30.09,NE,56,0.0,7.0,100,0.00,,---,0.02,VWS V14.01,2013-10-14 12:20:00,
2013-10-14 08:21:00,65.0,65.0,30.09,ESE,116,2.0,6.0,100,0.00,,---,0.02,VWS V14.01,2013-10-14 12:21:00,
2013-10-14 08:22:00,65.0,65.0,30.09,NNE,28,0.0,6.0,100,0.00,,---,0.02,VWS V14.01,2013-10-14 12:22:00,
2013-10-14 08:23:00,65.0,65.0,30.09,NNE,27,1.0,6.0,100,0.00,,---,0.02,VWS V14.01,2013-10-14 12:23:00,
2013-10-14 08:24:00,65.0,65.0,30.09,NNE,27,0.0,6.0,100,0.00,,---,0.02,VWS V14.01,2013-10-14 12:24:00,
2013-10-14 08:25:00,65.0,65.0,30.09,NNE,27,0.0,6.0,100,0.00,,---,0.02,VWS V14.01,2013-10-14 12:25:00,
2013-10-14 08:26:00,65.0,65.0,30.09,East,92,0.0,6.0,100,0.00,,---,0.02,VWS V14.01,2013-10-14 12:26:00,
2013-10-14 08:27:00,65.0,65.0,30.09,ENE,75,3.0,6.0,100,0.00,,---,0.02,VWS V14.01,2013-10-14 12:27:00,
2013-10-14 08:28:00,65.0,65.0,30.09,NE,45,0.0,6.0,100,0.00,,---,0.02,VWS V14.01,2013-10-14 12:28:00,
2013-10-14 08:29:00,65.0,65.0,30.09,NE,51,2.0,6.0,100,0.00,,---,0.02,VWS V14.01,2013-10-14 12:29:00,
2013-10-14 08:30:00,65.0,65.0,30.11,NE,45,0.0,6.0,100,0.00,,---,0.02,VWS V14.01,2013-10-14 12:30:00,
2013-10-14 08:31:00,65.0,65.0,30.11,North,7,1.0,5.0,100,0.00,,---,0.02,VWS V14.01,2013-10-14 12:31:00,
2013-10-14 08:32:00,65.0,65.0,30.11,ESE,107,2.0,5.0,100,0.00,,---,0.02,VWS V14.01,2013-10-14 12:32:00,
2013-10-14 08:33:00,65.0,65.0,30.11,NE,55,1.0,5.0,100,0.00,,---,0.02,VWS V14.01,2013-10-14 12:33:00,
2013-10-14 08:34:00,65.0,65.0,30.11,NE,51,0.0,6.0,100,0.00,,---,0.02,VWS V14.01,2013-10-14 12:34:00,
2013-10-14 08:35:00,65.0,65.0,30.11,NNE,30,3.0,6.0,100,0.00,,---,0.02,VWS V14.01,2013-10-14 12:35:00,
2013-10-14 08:36:00,65.0,65.0,30.11,NE,48,0.0,6.0,100,0.00,,---,0.02,VWS V14.01,2013-10-14 12:36:00,
2013-10-14 08:37:00,65.0,65.0,30.11,NE,48,0.0,6.0,100,0.00,,---,0.02,VWS V14.01,2013-10-14 12:37:00,
2013-10-14 08:38:00,65.0,65.0,30.11,NE,49,0.0,6.0,100,0.00,,---,0.02,VWS V14.01,2013-10-14 12:38:00,
2013-10-14 08:39:00,65.0,65.0,30.11,North,11,2.0,6.0,100,0.00,,---,0.02,VWS V14.01,2013-10-14 12:39:00,
2013-10-14 08:40:00,65.0,65.0,30.11,NNE,32,5.0,6.0,100,0.00,,---,0.02,VWS V14.01,2013-10-14 12:40:00,
2013-10-14 08:41:00,65.0,65.0,30.11,NNE,28,1.0,5.0,100,0.00,,---,0.02,VWS V14.01,2013-10-14 12:41:00,
2013-10-14 08:42:00,65.0,65.0,30.11,NE,55,5.0,10.0,100,0.00,,---,0.02,VWS V14.01,2013-10-14 12:42:00,
2013-10-14 08:43:00,65.0,65.0,30.11,ENE,58,2.0,10.0,100,0.00,,---,0.02,VWS V14.01,2013-10-14 12:43:00,
2013-10-14 08:44:00,65.0,65.0,30.11,NNE,20,3.0,10.0,100,0.00,,---,0.02,VWS V14.01,2013-10-14 12:44:00,
2013-10-14 08:45:00,65.0,65.0,30.11,North,8,3.0,10.0,100,0.00,,---,0.02,VWS V14.01,2013-10-14 12:45:00,
2013-10-14 08:46:00,65.0,65.0,30.11,NE,35,3.0,10.0,100,0.00,,---,0.02,VWS V14.01,2013-10-14 12:46:00,
2013-10-14 08:47:00,65.0,65.0,30.11,NNE,32,6.0,10.0,100,0.00,,---,0.02,VWS V14.01,2013-10-14 12:47:00,
2013-10-14 08:48:00,64.8,64.8,30.11,ENE,68,2.0,10.0,100,0.00,,---,0.02,VWS V14.01,2013-10-14 12:48:00,
2013-10-14 08:49:00,64.8,64.8,30.11,NNE,25,0.0,10.0,100,0.00,,---,0.02,VWS V14.01,2013-10-14 12:49:00,
2013-10-14 08:50:00,64.8,64.8,30.11,NE,52,3.0,10.0,100,0.00,,---,0.02,VWS V14.01,2013-10-14 12:50:00,
2013-10-14 08:51:00,64.8,64.8,30.11,NE,55,0.0,3.0,100,0.00,,---,0.02,VWS V14.01,2013-10-14 12:51:00,
2013-10-14 08:52:00,64.8,64.8,30.11,NE,40,0.0,3.0,100,0.00,,---,0.02,VWS V14.01,2013-10-14 12:52:00,
2013-10-14 08:53:00,64.8,64.8,30.11,ENE,61,11.0,11.0,100,0.00,,---,0.02,VWS V14.01,2013-10-14 12:53:00,
2013-10-14 08:54:00,64.8,64.8,30.11,North,8,1.0,11.0,100,0.00,,---,0.02,VWS V14.01,2013-10-14 12:54:00,
2013-10-14 08:55:00,64.8,64.8,30.11,NNE,18,1.0,11.0,100,0.00,,---,0.02,VWS V14.01,2013-10-14 12:55:00,
2013-10-14 08:56:00,64.8,64.8,30.11,NE,47,3.0,11.0,100,0.00,,---,0.02,VWS V14.01,2013-10-14 12:56:00,
2013-10-14 08:57:00,64.8,64.8,30.11,NNE,30,0.0,11.0,100,0.00,,---,0.02,VWS V14.01,2013-10-14 12:57:00,
2013-10-14 08:58:00,64.8,64.8,30.11,NE,34,4.0,11.0,100,0.00,,---,0.02,VWS V14.01,2013-10-14 12:58:00,
2013-10-14 08:59:00,64.8,64.8,30.11,NE,37,1.0,11.0,100,0.00,,---,0.02,VWS V14.01,2013-10-14 12:59:00,
2013-10-14 09:00:00,64.8,64.8,30.11,North,0,3.0,11.0,100,0.00,,---,0.02,VWS V14.01,2013-10-14 13:00:00,
2013-10-14 09:01:00,64.8,64.8,30.11,ENE,65,3.0,4.0,100,0.00,,---,0.02,VWS V14.01,2013-10-14 13:01:00,
2013-10-14 09:02:00,64.8,64.8,30.11,NNE,28,2.0,6.0,100,0.00,,---,0.02,VWS V14.01,2013-10-14 13:02:00,
2013-10-14 09:03:00,64.8,64.8,30.11,ENE,75,5.0,8.0,100,0.00,,---,0.02,VWS V14.01,2013-10-14 13:03:00,
2013-10-14 09:04:00,64.8,64.8,30.11,North,1,3.0,8.0,100,0.00,,---,0.02,VWS V14.01,2013-10-14 13:04:00,
2013-10-14 09:05:00,64.8,64.8,30.11,ENE,71,2.0,8.0,100,0.00,,---,0.02,VWS V14.01,2013-10-14 13:05:00,
2013-10-14 09:06:00,64.8,64.8,30.11,North,4,1.0,8.0,100,0.00,,---,0.02,VWS V14.01,2013-10-14 13:06:00,
2013-10-14 09:07:00,64.8,64.8,30.11,ENE,65,5.0,8.0,100,0.00,,---,0.02,VWS V14.01,2013-10-14 13:07:00,
2013-10-14 09:08:00,64.8,64.8,30.11,NE,54,0.0,8.0,100,0.00,,---,0.02,VWS V14.01,2013-10-14 13:08:00,
2013-10-14 09:09:00,64.8,64.8,30.11,NNE,25,0.0,8.0,100,0.00,,---,0.02,VWS V14.01,2013-10-14 13:09:00,
2013-10-14 09:10:00,64.8,64.8,30.11,NE,40,0.0,8.0,100,0.00,,---,0.02,VWS V14.01,2013-10-14 13:10:00,
2013-10-14 09:11:00,64.8,64.8,30.11,ENE,78,3.0,8.0,100,0.00,,---,0.02,VWS V14.01,2013-10-14 13:11:00,
2013-10-14 09:12:00,64.8,64.8,30.11,NNE,24,0.0,8.0,100,0.00,,---,0.02,VWS V14.01,2013-10-14 13:12:00,
2013-10-14 09:13:00,64.8,64.8,30.11,NNE,25,0.0,8.0,100,0.00,,---,0.02,VWS V14.01,2013-10-14 13:13:00,
2013-10-14 09:14:00,64.8,64.8,30.11,ENE,66,0.0,8.0,100,0.00,,---,0.02,VWS V14.01,2013-10-14 13:14:00,
2013-10-14 09:15:00,64.8,64.8,30.11,ENE,68,2.0,8.0,100,0.00,,---,0.02,VWS V14.01,2013-10-14 13:15:00,
2013-10-14 09:16:00,64.8,64.8,30.11,NNE,13,0.0,8.0,100,0.00,,---,0.02,VWS V14.01,2013-10-14 13:16:00,
2013-10-14 09:17:00,64.8,64.8,30.11,ENE,64,0.0,8.0,100,0.00,,---,0.02,VWS V14.01,2013-10-14 13:17:00,
2013-10-14 09:18:00,64.8,64.8,30.11,North,0,5.0,8.0,100,0.00,,---,0.02,VWS V14.01,2013-10-14 13:18:00,
2013-10-14 09:19:00,64.8,64.8,30.11,NNE,27,1.0,8.0,100,0.00,,---,0.02,VWS V14.01,2013-10-14 13:19:00,
2013-10-14 09:20:00,64.8,64.8,30.11,NE,35,0.0,8.0,100,0.00,,---,0.02,VWS V14.01,2013-10-14 13:20:00,
2013-10-14 09:21:00,64.8,64.8,30.11,NE,35,0.0,0.0,100,0.00,,---,0.02,VWS V14.01,2013-10-14 13:21:00,
2013-10-14 09:22:00,64.8,64.8,30.11,NE,35,2.0,6.0,100,0.00,,---,0.02,VWS V14.01,2013-10-14 13:22:00,
2013-10-14 09:23:00,64.8,64.8,30.11,North,354,0.0,6.0,100,0.00,,---,0.02,VWS V14.01,2013-10-14 13:23:00,
2013-10-14 09:24:00,64.8,64.8,30.11,NE,37,5.0,8.0,100,0.00,,---,0.02,VWS V14.01,2013-10-14 13:24:00,
2013-10-14 09:25:00,64.8,64.8,30.11,NNE,31,0.0,8.0,100,0.00,,---,0.02,VWS V14.01,2013-10-14 13:25:00,
2013-10-14 09:26:00,64.8,64.8,30.11,NNE,16,0.0,8.0,100,0.00,,---,0.02,VWS V14.01,2013-10-14 13:26:00,
2013-10-14 09:27:00,64.8,64.8,30.11,NNE,30,2.0,8.0,100,0.00,,---,0.02,VWS V14.01,2013-10-14 13:27:00,
2013-10-14 09:28:00,64.8,64.8,30.11,North,4,5.0,8.0,100,0.00,,---,0.02,VWS V14.01,2013-10-14 13:28:00,
2013-10-14 09:29:00,64.8,64.8,30.11,NNE,28,6.0,8.0,100,0.00,,---,0.02,VWS V14.01,2013-10-14 13:29:00,
2013-10-14 09:30:00,64.8,64.8,30.12,NNE,28,11.0,11.0,100,0.00,,---,0.02,VWS V14.01,2013-10-14 13:30:00,
2013-10-14 09:31:00,64.8,64.8,30.12,ENE,73,7.0,11.0,100,0.00,,---,0.02,VWS V14.01,2013-10-14 13:31:00,
2013-10-14 09:32:00,64.8,64.8,30.12,North,0,3.0,11.0,100,0.00,,---,0.02,VWS V14.01,2013-10-14 13:32:00,
2013-10-14 09:33:00,64.8,64.8,30.12,NE,42,6.0,11.0,100,0.00,,---,0.02,VWS V14.01,2013-10-14 13:33:00,
2013-10-14 09:34:00,64.8,64.8,30.12,North,356,3.0,11.0,100,0.00,,---,0.02,VWS V14.01,2013-10-14 13:34:00,
2013-10-14 09:35:00,64.8,64.8,30.12,ENE,78,2.0,11.0,100,0.00,,---,0.02,VWS V14.01,2013-10-14 13:35:00,
2013-10-14 09:36:00,64.8,64.8,30.12,East,85,3.0,11.0,100,0.00,,---,0.02,VWS V14.01,2013-10-14 13:36:00,
2013-10-14 09:37:00,64.8,64.8,30.12,NNE,31,2.0,11.0,100,0.00,,---,0.02,VWS V14.01,2013-10-14 13:37:00,
2013-10-14 09:38:00,64.8,64.8,30.12,NNE,31,0.0,11.0,100,0.00,,---,0.02,VWS V14.01,2013-10-14 13:38:00,
2013-10-14 09:39:00,64.8,64.8,30.12,NNE,31,0.0,11.0,100,0.00,,---,0.02,VWS V14.01,2013-10-14 13:39:00,
2013-10-14 09:40:00,64.8,64.8,30.12,NE,44,5.0,11.0,100,0.00,,---,0.02,VWS V14.01,2013-10-14 13:40:00,
2013-10-14 09:41:00,64.8,64.8,30.12,NNE,31,4.0,7.0,100,0.00,,---,0.02,VWS V14.01,2013-10-14 13:41:00,
2013-10-14 09:42:00,64.8,64.8,30.12,NNE,28,2.0,7.0,100,0.00,,---,0.02,VWS V14.01,2013-10-14 13:42:00,
2013-10-14 09:43:00,64.8,64.8,30.12,ENE,75,0.0,7.0,100,0.00,,---,0.02,VWS V14.01,2013-10-14 13:43:00,
2013-10-14 09:44:00,64.8,64.8,30.12,NNE,14,0.0,7.0,100,0.00,,---,0.02,VWS V14.01,2013-10-14 13:44:00,
2013-10-14 09:45:00,65.0,65.0,30.11,NNE,14,0.0,7.0,100,0.00,,---,0.02,VWS V14.01,2013-10-14 13:45:00,
2013-10-14 09:46:00,65.0,65.0,30.11,NE,54,0.0,7.0,100,0.00,,---,0.02,VWS V14.01,2013-10-14 13:46:00,
2013-10-14 09:47:00,65.0,65.0,30.11,ENE,61,7.0,12.0,100,0.00,,---,0.02,VWS V14.01,2013-10-14 13:47:00,
2013-10-14 09:48:00,65.0,65.0,30.11,NE,35,9.0,12.0,100,0.00,,---,0.02,VWS V14.01,2013-10-14 13:48:00,
2013-10-14 09:49:00,65.0,65.0,30.11,North,6,1.0,12.0,100,0.00,,---,0.02,VWS V14.01,2013-10-14 13:49:00,
2013-10-14 09:50:00,65.0,65.0,30.11,NE,42,2.0,12.0,100,0.00,,---,0.02,VWS V14.01,2013-10-14 13:50:00,
2013-10-14 09:51:00,65.0,65.0,30.11,ENE,69,5.0,8.0,100,0.00,,---,0.02,VWS V14.01,2013-10-14 13:51:00,
2013-10-14 09:52:00,65.0,65.0,30.11,ENE,64,2.0,8.0,100,0.00,,---,0.02,VWS V14.01,2013-10-14 13:52:00,
2013-10-14 09:53:00,65.0,65.0,30.11,ENE,58,1.0,8.0,100,0.00,,---,0.02,VWS V14.01,2013-10-14 13:53:00,
2013-10-14 09:54:00,65.0,65.0,30.11,NE,34,1.0,8.0,100,0.00,,---,0.02,VWS V14.01,2013-10-14 13:54:00,
2013-10-14 09:55:00,65.0,65.0,30.11,NE,40,3.0,8.0,100,0.00,,---,0.02,VWS V14.01,2013-10-14 13:55:00,
2013-10-14 09:56:00,65.0,65.0,30.11,NNE,17,6.0,10.0,100,0.00,,---,0.02,VWS V14.01,2013-10-14 13:56:00,
2013-10-14 09:57:00,65.0,65.0,30.11,ENE,58,5.0,10.0,100,0.00,,---,0.02,VWS V14.01,2013-10-14 13:57:00,
2013-10-14 09:58:00,65.0,65.0,30.11,NE,47,2.0,10.0,100,0.00,,---,0.02,VWS V14.01,2013-10-14 13:58:00,
2013-10-14 09:59:00,65.0,65.0,30.11,North,7,4.0,10.0,100,0.00,,---,0.02,VWS V14.01,2013-10-14 13:59:00,
2013-10-14 10:00:00,65.0,65.0,30.11,NE,42,0.0,10.0,100,0.00,,---,0.02,VWS V14.01,2013-10-14 14:00:00,
2013-10-14 10:01:00,65.0,65.0,30.11,ENE,69,6.0,6.0,100,0.00,,---,0.02,VWS V14.01,2013-10-14 14:01:00,
2013-10-14 10:02:00,65.0,65.0,30.11,NNE,23,5.0,8.0,100,0.00,,---,0.02,VWS V14.01,2013-10-14 14:02:00,
2013-10-14 10:03:00,65.0,65.0,30.11,NE,34,6.0,8.0,100,0.00,,---,0.02,VWS V14.01,2013-10-14 14:03:00,
2013-10-14 10:04:00,65.0,65.0,30.11,NE,42,1.0,8.0,100,0.00,,---,0.02,VWS V14.01,2013-10-14 14:04:00,
2013-10-14 10:05:00,65.0,65.0,30.11,North,3,0.0,8.0,100,0.00,,---,0.02,VWS V14.01,2013-10-14 14:05:00,
2013-10-14 10:06:00,65.0,65.0,30.11,NNE,23,2.0,8.0,100,0.00,,---,0.02,VWS V14.01,2013-10-14 14:06:00,
2013-10-14 10:07:00,65.0,65.0,30.11,North,10,2.0,8.0,100,0.00,,---,0.02,VWS V14.01,2013-10-14 14:07:00,
2013-10-14 10:08:00,65.0,65.0,30.11,NNE,32,2.0,8.0,100,0.00,,---,0.02,VWS V14.01,2013-10-14 14:08:00,
2013-10-14 10:09:00,65.2,65.2,30.11,ENE,75,6.0,8.0,100,0.00,,---,0.02,VWS V14.01,2013-10-14 14:09:00,
2013-10-14 10:10:00,65.2,65.2,30.11,NE,42,0.0,8.0,100,0.00,,---,0.02,VWS V14.01,2013-10-14 14:10:00,
2013-10-14 10:11:00,65.2,65.2,30.11,NNE,27,2.0,6.0,100,0.00,,---,0.02,VWS V14.01,2013-10-14 14:11:00,
2013-10-14 10:12:00,65.2,65.2,30.11,ENE,66,0.0,6.0,100,0.00,,---,0.02,VWS V14.01,2013-10-14 14:12:00,
2013-10-14 10:13:00,65.2,65.2,30.11,NNE,27,4.0,6.0,100,0.00,,---,0.02,VWS V14.01,2013-10-14 14:13:00,
2013-10-14 10:14:00,65.2,65.2,30.11,NNE,27,0.0,6.0,100,0.00,,---,0.02,VWS V14.01,2013-10-14 14:14:00,
2013-10-14 10:15:00,65.2,65.2,30.11,NNE,25,0.0,6.0,100,0.00,,---,0.02,VWS V14.01,2013-10-14 14:15:00,
2013-10-14 10:16:00,65.2,65.2,30.11,NNE,18,6.0,8.0,100,0.00,,---,0.02,VWS V14.01,2013-10-14 14:16:00,
2013-10-14 10:17:00,65.2,65.2,30.11,NNE,21,1.0,8.0,100,0.00,,---,0.02,VWS V14.01,2013-10-14 14:17:00,
2013-10-14 10:18:00,65.2,65.2,30.11,NE,48,10.0,10.0,100,0.00,,---,0.02,VWS V14.01,2013-10-14 14:18:00,
2013-10-14 10:19:00,65.2,65.2,30.11,NNE,27,6.0,11.0,100,0.00,,---,0.02,VWS V14.01,2013-10-14 14:19:00,
2013-10-14 10:20:00,65.2,65.2,30.11,East,82,0.0,11.0,100,0.00,,---,0.02,VWS V14.01,2013-10-14 14:20:00,
2013-10-14 10:21:00,65.2,65.2,30.11,NE,40,2.0,3.0,100,0.00,,---,0.02,VWS V14.01,2013-10-14 14:21:00,
2013-10-14 10:22:00,65.2,65.2,30.11,NE,38,0.0,3.0,100,0.00,,---,0.02,VWS V14.01,2013-10-14 14:22:00,
2013-10-14 10:23:00,65.3,65.3,30.11,NE,37,0.0,3.0,100,0.00,,---,0.02,VWS V14.01,2013-10-14 14:23:00,
2013-10-14 10:24:00,65.3,65.3,30.11,North,7,3.0,3.0,100,0.00,,---,0.02,VWS V14.01,2013-10-14 14:24:00,
2013-10-14 10:25:00,65.3,65.3,30.11,North,10,7.0,8.0,100,0.00,,---,0.02,VWS V14.01,2013-10-14 14:25:00,
2013-10-14 10:26:00,65.3,65.3,30.11,NE,38,3.0,8.0,100,0.00,,---,0.02,VWS V14.01,2013-10-14 14:26:00,
2013-10-14 10:27:00,65.3,65.3,30.11,NNE,13,1.0,8.0,100,0.00,,---,0.02,VWS V14.01,2013-10-14 14:27:00,
2013-10-14 10:28:00,65.3,65.3,30.11,NNE,13,0.0,8.0,100,0.00,,---,0.02,VWS V14.01,2013-10-14 14:28:00,
2013-10-14 10:29:00,65.3,65.3,30.11,North,1,3.0,8.0,100,0.00,,---,0.02,VWS V14.01,2013-10-14 14:29:00,
2013-10-14 10:30:00,65.3,65.3,30.11,NE,51,6.0,8.0,100,0.00,,---,0.02,VWS V14.01,2013-10-14 14:30:00,
2013-10-14 10:31:00,65.3,65.3,30.11,NE,51,0.0,6.0,100,0.00,,---,0.02,VWS V14.01,2013-10-14 14:31:00,
2013-10-14 10:32:00,65.3,65.3,30.11,North,10,6.0,6.0,100,0.00,,---,0.02,VWS V14.01,2013-10-14 14:32:00,
2013-10-14 10:33:00,65.3,65.3,30.11,North,359,5.0,8.0,100,0.00,,---,0.02,VWS V14.01,2013-10-14 14:33:00,
2013-10-14 10:34:00,65.3,65.3,30.11,NE,41,5.0,8.0,100,0.00,,---,0.02,VWS V14.01,2013-10-14 14:34:00,
2013-10-14 10:35:00,65.5,65.5,30.11,East,79,3.0,8.0,100,0.00,,---,0.02,VWS V14.01,2013-10-14 14:35:00,
2013-10-14 10:36:00,65.5,65.5,30.11,ENE,76,4.0,8.0,100,0.00,,---,0.02,VWS V14.01,2013-10-14 14:36:00,
2013-10-14 10:37:00,65.5,65.5,30.11,ENE,76,3.0,8.0,100,0.00,,---,0.02,VWS V14.01,2013-10-14 14:37:00,
2013-10-14 10:38:00,65.5,65.5,30.11,North,0,6.0,8.0,100,0.00,,---,0.02,VWS V14.01,2013-10-14 14:38:00,
2013-10-14 10:39:00,65.5,65.5,30.11,NNE,25,1.0,12.0,100,0.00,,---,0.02,VWS V14.01,2013-10-14 14:39:00,
2013-10-14 10:40:00,65.5,65.5,30.11,NE,34,2.0,12.0,100,0.00,,---,0.02,VWS V14.01,2013-10-14 14:40:00,
2013-10-14 10:41:00,65.5,65.5,30.11,NE,34,3.0,3.0,100,0.00,,---,0.02,VWS V14.01,2013-10-14 14:41:00,
2013-10-14 10:42:00,65.5,65.5,30.11,NNW,336,2.0,6.0,100,0.00,,---,0.02,VWS V14.01,2013-10-14 14:42:00,
2013-10-14 10:43:00,65.6,65.6,30.11,NE,34,2.0,6.0,100,0.00,,---,0.02,VWS V14.01,2013-10-14 14:43:00,
2013-10-14 10:44:00,65.6,65.6,30.11,North,0,0.0,6.0,100,0.00,,---,0.02,VWS V14.01,2013-10-14 14:44:00,
2013-10-14 10:45:00,65.6,65.6,30.10,NNE,23,3.0,6.0,100,0.00,,---,0.02,VWS V14.01,2013-10-14 14:45:00,
2013-10-14 10:46:00,65.6,65.6,30.10,NE,40,3.0,6.0,100,0.00,,---,0.02,VWS V14.01,2013-10-14 14:46:00,
2013-10-14 10:47:00,65.6,65.6,30.10,NE,47,5.0,6.0,100,0.00,,---,0.02,VWS V14.01,2013-10-14 14:47:00,
2013-10-14 10:48:00,65.6,65.6,30.10,East,89,3.0,6.0,100,0.00,,---,0.02,VWS V14.01,2013-10-14 14:48:00,
2013-10-14 10:49:00,65.6,65.6,30.10,NE,41,0.0,6.0,100,0.00,,---,0.02,VWS V14.01,2013-10-14 14:49:00,
2013-10-14 10:50:00,65.8,65.8,30.10,NE,47,3.0,6.0,100,0.00,,---,0.02,VWS V14.01,2013-10-14 14:50:00,
2013-10-14 10:51:00,65.8,65.8,30.10,East,79,2.0,8.0,100,0.00,,---,0.02,VWS V14.01,2013-10-14 14:51:00,
2013-10-14 10:52:00,65.8,65.8,30.10,ENE,61,2.0,8.0,100,0.00,,---,0.02,VWS V14.01,2013-10-14 14:52:00,
2013-10-14 10:53:00,65.8,65.8,30.10,NE,54,3.0,8.0,100,0.00,,---,0.02,VWS V14.01,2013-10-14 14:53:00,
2013-10-14 10:54:00,65.8,65.8,30.10,NNE,21,3.0,8.0,100,0.00,,---,0.02,VWS V14.01,2013-10-14 14:54:00,
2013-10-14 10:55:00,65.8,65.8,30.10,ENE,65,4.0,8.0,100,0.00,,---,0.02,VWS V14.01,2013-10-14 14:55:00,
2013-10-14 10:56:00,65.8,65.8,30.10,ENE,73,2.0,8.0,100,0.00,,---,0.02,VWS V14.01,2013-10-14 14:56:00,
2013-10-14 10:57:00,65.8,65.8,30.10,NNE,27,2.0,8.0,100,0.00,,---,0.02,VWS V14.01,2013-10-14 14:57:00,
2013-10-14 10:58:00,65.8,65.8,30.10,NE,41,3.0,8.0,100,0.00,,---,0.02,VWS V14.01,2013-10-14 14:58:00,
2013-10-14 10:59:00,65.8,65.8,30.10,NNE,13,6.0,9.0,100,0.00,,---,0.02,VWS V14.01,2013-10-14 14:59:00,
2013-10-14 11:00:00,65.8,65.8,30.11,NNE,20,2.0,9.0,100,0.00,,---,0.02,VWS V14.01,2013-10-14 15:00:00,
2013-10-14 11:01:00,65.8,65.8,30.11,East,82,5.0,5.0,100,0.00,,---,0.02,VWS V14.01,2013-10-14 15:01:00,
2013-10-14 11:02:00,65.8,65.5,30.11,North,357,3.0,9.0,99,0.00,,---,0.02,VWS V14.01,2013-10-14 15:02:00,
2013-10-14 11:03:00,65.8,65.5,30.11,NNE,25,0.0,9.0,99,0.00,,---,0.02,VWS V14.01,2013-10-14 15:03:00,
2013-10-14 11:04:00,65.8,65.5,30.11,NE,54,4.0,9.0,99,0.00,,---,0.02,VWS V14.01,2013-10-14 15:04:00,
2013-10-14 11:05:00,65.8,65.5,30.11,NNE,20,3.0,9.0,99,0.00,,---,0.02,VWS V14.01,2013-10-14 15:05:00,
2013-10-14 11:06:00,65.8,65.5,30.11,ENE,68,12.0,12.0,99,0.00,,---,0.02,VWS V14.01,2013-10-14 15:06:00,
2013-10-14 11:07:00,65.8,65.5,30.11,NE,34,2.0,12.0,99,0.00,,---,0.02,VWS V14.01,2013-10-14 15:07:00,
2013-10-14 11:08:00,65.8,65.5,30.11,NE,56,8.0,12.0,99,0.00,,---,0.02,VWS V14.01,2013-10-14 15:08:00,
2013-10-14 11:09:00,65.8,65.5,30.11,East,99,6.0,12.0,99,0.00,,---,0.02,VWS V14.01,2013-10-14 15:09:00,
2013-10-14 11:10:00,65.8,65.5,30.11,East,85,1.0,12.0,99,0.00,,---,0.02,VWS V14.01,2013-10-14 15:10:00,
2013-10-14 11:11:00,65.8,65.5,30.11,ENE,71,7.0,13.0,99,0.00,,---,0.02,VWS V14.01,2013-10-14 15:11:00,
2013-10-14 11:12:00,65.8,65.5,30.11,NE,44,5.0,13.0,99,0.00,,---,0.02,VWS V14.01,2013-10-14 15:12:00,
2013-10-14 11:13:00,65.8,65.2,30.11,NE,41,0.0,13.0,98,0.00,,---,0.02,VWS V14.01,2013-10-14 15:13:00,
2013-10-14 11:14:00,65.8,65.2,30.11,NE,37,6.0,13.0,98,0.00,,---,0.02,VWS V14.01,2013-10-14 15:14:00,
2013-10-14 11:15:00,65.8,65.2,30.11,NE,54,6.0,13.0,98,0.00,,---,0.02,VWS V14.01,2013-10-14 15:15:00,
2013-10-14 11:16:00,65.8,65.2,30.11,ENE,62,0.0,13.0,98,0.00,,---,0.02,VWS V14.01,2013-10-14 15:16:00,
2013-10-14 11:17:00,65.8,65.2,30.11,ENE,62,0.0,13.0,98,0.00,,---,0.02,VWS V14.01,2013-10-14 15:17:00,
2013-10-14 11:18:00,65.8,65.2,30.11,NE,54,2.0,13.0,98,0.00,,---,0.02,VWS V14.01,2013-10-14 15:18:00,
2013-10-14 11:19:00,65.8,65.2,30.11,NE,44,2.0,13.0,98,0.00,,---,0.02,VWS V14.01,2013-10-14 15:19:00,
2013-10-14 11:20:00,65.8,65.2,30.11,NE,44,0.0,13.0,98,0.00,,---,0.02,VWS V14.01,2013-10-14 15:20:00,
2013-10-14 11:21:00,66.0,65.4,30.11,NE,52,3.0,3.0,98,0.00,,---,0.02,VWS V14.01,2013-10-14 15:21:00,
2013-10-14 11:22:00,66.0,65.4,30.11,NE,35,0.0,4.0,98,0.00,,---,0.02,VWS V14.01,2013-10-14 15:22:00,
2013-10-14 11:23:00,66.0,65.4,30.11,NE,37,0.0,4.0,98,0.00,,---,0.02,VWS V14.01,2013-10-14 15:23:00,
2013-10-14 11:24:00,66.0,65.4,30.11,NE,41,4.0,5.0,98,0.00,,---,0.02,VWS V14.01,2013-10-14 15:24:00,
2013-10-14 11:25:00,66.0,65.4,30.11,East,80,2.0,8.0,98,0.00,,---,0.02,VWS V14.01,2013-10-14 15:25:00,
2013-10-14 11:26:00,66.0,65.4,30.11,East,80,0.0,8.0,98,0.00,,---,0.02,VWS V14.01,2013-10-14 15:26:00,
2013-10-14 11:27:00,66.0,65.4,30.11,East,83,6.0,8.0,98,0.00,,---,0.02,VWS V14.01,2013-10-14 15:27:00,
2013-10-14 11:28:00,66.0,65.4,30.11,NE,47,3.0,8.0,98,0.00,,---,0.02,VWS V14.01,2013-10-14 15:28:00,
2013-10-14 11:29:00,66.0,65.4,30.11,NE,34,1.0,8.0,98,0.00,,---,0.02,VWS V14.01,2013-10-14 15:29:00,
2013-10-14 11:30:00,66.0,65.4,30.10,East,83,2.0,8.0,98,0.00,,---,0.02,VWS V14.01,2013-10-14 15:30:00,
2013-10-14 11:31:00,66.0,65.4,30.10,NE,40,2.0,4.0,98,0.00,,---,0.02,VWS V14.01,2013-10-14 15:31:00,
2013-10-14 11:32:00,66.0,65.4,30.10,North,11,3.0,6.0,98,0.00,,---,0.02,VWS V14.01,2013-10-14 15:32:00,
2013-10-14 11:33:00,66.0,65.4,30.10,NNE,13,0.0,6.0,98,0.00,,---,0.02,VWS V14.01,2013-10-14 15:33:00,
2013-10-14 11:34:00,66.0,65.4,30.10,NNE,13,0.0,6.0,98,0.00,,---,0.02,VWS V14.01,2013-10-14 15:34:00,
2013-10-14 11:35:00,66.1,65.5,30.10,NNE,13,0.0,6.0,98,0.00,,---,0.02,VWS V14.01,2013-10-14 15:35:00,
2013-10-14 11:36:00,66.1,65.5,30.10,NNE,13,0.0,6.0,98,0.00,,---,0.02,VWS V14.01,2013-10-14 15:36:00,
2013-10-14 11:37:00,66.1,65.5,30.10,NNE,17,3.0,6.0,98,0.00,,---,0.02,VWS V14.01,2013-10-14 15:37:00,
2013-10-14 11:38:00,66.1,65.8,30.10,NE,45,6.0,8.0,99,0.00,,---,0.02,VWS V14.01,2013-10-14 15:38:00,
2013-10-14 11:39:00,66.1,65.8,30.10,NNE,32,0.0,8.0,99,0.00,,---,0.02,VWS V14.01,2013-10-14 15:39:00,
2013-10-14 11:40:00,66.1,65.8,30.10,NE,37,2.0,8.0,99,0.00,,---,0.02,VWS V14.01,2013-10-14 15:40:00,
2013-10-14 11:41:00,66.3,66.0,30.10,NE,37,0.0,2.0,99,0.00,,---,0.02,VWS V14.01,2013-10-14 15:41:00,
2013-10-14 11:42:00,66.3,66.0,30.10,NE,35,0.0,2.0,99,0.00,,---,0.02,VWS V14.01,2013-10-14 15:42:00,
2013-10-14 11:43:00,66.3,66.0,30.10,NE,35,0.0,2.0,99,0.00,,---,0.02,VWS V14.01,2013-10-14 15:43:00,
2013-10-14 11:44:00,66.3,66.0,30.10,NE,35,0.0,2.0,99,0.00,,---,0.02,VWS V14.01,2013-10-14 15:44:00,
2013-10-14 11:45:00,66.3,66.0,30.10,ENE,73,7.0,7.0,99,0.00,,---,0.02,VWS V14.01,2013-10-14 15:45:00,
2013-10-14 11:46:00,66.4,66.1,30.10,East,85,3.0,7.0,99,0.00,,---,0.02,VWS V14.01,2013-10-14 15:46:00,
2013-10-14 11:47:00,66.4,65.8,30.10,NNE,23,5.0,7.0,98,0.00,,---,0.02,VWS V14.01,2013-10-14 15:47:00,
2013-10-14 11:48:00,66.4,65.8,30.10,ENE,59,1.0,7.0,98,0.00,,---,0.02,VWS V14.01,2013-10-14 15:48:00,
2013-10-14 11:49:00,66.4,65.8,30.10,NE,49,0.0,7.0,98,0.00,,---,0.02,VWS V14.01,2013-10-14 15:49:00,
2013-10-14 11:50:00,66.4,65.8,30.10,NNE,28,0.0,7.0,98,0.00,,---,0.02,VWS V14.01,2013-10-14 15:50:00,
2013-10-14 11:51:00,66.4,65.8,30.10,NNE,28,3.0,3.0,98,0.00,,---,0.02,VWS V14.01,2013-10-14 15:51:00,
2013-10-14 11:52:00,66.4,65.8,30.10,NE,35,0.0,3.0,98,0.00,,---,0.02,VWS V14.01,2013-10-14 15:52:00,
2013-10-14 11:53:00,66.4,65.8,30.10,NE,35,0.0,3.0,98,0.00,,---,0.02,VWS V14.01,2013-10-14 15:53:00,
2013-10-14 11:54:00,66.4,65.8,30.10,SSW,206,0.0,3.0,98,0.00,,---,0.02,VWS V14.01,2013-10-14 15:54:00,
2013-10-14 11:55:00,66.6,66.0,30.10,NNE,30,2.0,4.0,98,0.00,,---,0.02,VWS V14.01,2013-10-14 15:55:00,
2013-10-14 11:56:00,66.6,66.0,30.10,ENE,65,8.0,9.0,98,0.00,,---,0.02,VWS V14.01,2013-10-14 15:56:00,
2013-10-14 11:57:00,66.6,66.0,30.10,NNE,32,2.0,9.0,98,0.00,,---,0.02,VWS V14.01,2013-10-14 15:57:00,
2013-10-14 11:58:00,66.6,65.7,30.10,North,4,3.0,9.0,97,0.00,,---,0.02,VWS V14.01,2013-10-14 15:58:00,
2013-10-14 11:59:00,66.6,65.7,30.10,ENE,59,2.0,9.0,97,0.00,,---,0.02,VWS V14.01,2013-10-14 15:59:00,
2013-10-14 12:00:00,66.6,65.7,30.10,NE,44,2.0,9.0,97,0.00,,---,0.02,VWS V14.01,2013-10-14 16:00:00,
2013-10-14 12:01:00,66.6,65.7,30.10,ENE,68,6.0,12.0,97,0.00,,---,0.02,VWS V14.01,2013-10-14 16:01:00,
2013-10-14 12:02:00,66.6,65.7,30.10,NE,34,2.0,12.0,97,0.00,,---,0.02,VWS V14.01,2013-10-14 16:02:00,
2013-10-14 12:03:00,66.6,65.4,30.10,ENE,62,0.0,12.0,96,0.00,,---,0.02,VWS V14.01,2013-10-14 16:03:00,
2013-10-14 12:04:00,66.6,65.4,30.10,NE,40,0.0,12.0,96,0.00,,---,0.02,VWS V14.01,2013-10-14 16:04:00,
2013-10-14 12:05:00,66.6,65.4,30.10,NE,40,0.0,12.0,96,0.00,,---,0.02,VWS V14.01,2013-10-14 16:05:00,
2013-10-14 12:06:00,66.6,65.4,30.10,ENE,64,0.0,12.0,96,0.00,,---,0.02,VWS V14.01,2013-10-14 16:06:00,
2013-10-14 12:07:00,66.8,65.6,30.10,NE,52,0.0,12.0,96,0.00,,---,0.02,VWS V14.01,2013-10-14 16:07:00,
2013-10-14 12:08:00,66.8,65.6,30.10,NE,52,0.0,12.0,96,0.00,,---,0.02,VWS V14.01,2013-10-14 16:08:00,
2013-10-14 12:09:00,66.8,65.6,30.10,NE,52,0.0,12.0,96,0.00,,---,0.02,VWS V14.01,2013-10-14 16:09:00,
2013-10-14 12:10:00,66.8,65.6,30.10,NE,52,0.0,12.0,96,0.00,,---,0.02,VWS V14.01,2013-10-14 16:10:00,
2013-10-14 12:11:00,66.8,65.6,30.10,ENE,69,2.0,11.0,96,0.00,,---,0.02,VWS V14.01,2013-10-14 16:11:00,
2013-10-14 12:12:00,66.8,65.6,30.10,ENE,66,3.0,11.0,96,0.00,,---,0.02,VWS V14.01,2013-10-14 16:12:00,
2013-10-14 12:13:00,66.8,65.6,30.10,ENE,72,2.0,11.0,96,0.00,,---,0.02,VWS V14.01,2013-10-14 16:13:00,
2013-10-14 12:14:00,66.8,65.6,30.10,NNE,32,0.0,11.0,96,0.00,,---,0.02,VWS V14.01,2013-10-14 16:14:00,
2013-10-14 12:15:00,66.8,65.6,30.10,North,10,2.0,11.0,96,0.00,,---,0.02,VWS V14.01,2013-10-14 16:15:00,
2013-10-14 12:16:00,66.8,65.6,30.10,NNE,28,4.0,11.0,96,0.00,,---,0.02,VWS V14.01,2013-10-14 16:16:00,
2013-10-14 12:17:00,66.8,65.6,30.10,NNE,28,4.0,11.0,96,0.00,,---,0.02,VWS V14.01,2013-10-14 16:17:00,
2013-10-14 12:18:00,66.9,65.7,30.10,ENE,58,5.0,11.0,96,0.00,,---,0.02,VWS V14.01,2013-10-14 16:18:00,
2013-10-14 12:19:00,66.9,65.7,30.10,NE,35,0.0,11.0,96,0.00,,---,0.02,VWS V14.01,2013-10-14 16:19:00,
2013-10-14 12:20:00,66.9,65.7,30.10,NNE,16,3.0,11.0,96,0.00,,---,0.02,VWS V14.01,2013-10-14 16:20:00,
2013-10-14 12:21:00,66.9,65.4,30.10,NE,51,5.0,5.0,95,0.00,,---,0.02,VWS V14.01,2013-10-14 16:21:00,
2013-10-14 12:22:00,66.9,65.4,30.10,NNE,18,2.0,5.0,95,0.00,,---,0.02,VWS V14.01,2013-10-14 16:22:00,
2013-10-14 12:23:00,66.9,65.4,30.10,NNE,18,0.0,5.0,95,0.00,,---,0.02,VWS V14.01,2013-10-14 16:23:00,
2013-10-14 12:24:00,66.9,65.4,30.10,ENE,68,6.0,7.0,95,0.00,,---,0.02,VWS V14.01,2013-10-14 16:24:00,
2013-10-14 12:25:00,66.9,65.4,30.10,NNE,28,3.0,7.0,95,0.00,,---,0.02,VWS V14.01,2013-10-14 16:25:00,
2013-10-14 12:26:00,66.9,65.4,30.10,NNE,17,3.0,7.0,95,0.00,,---,0.02,VWS V14.01,2013-10-14 16:26:00,
2013-10-14 12:27:00,66.9,65.4,30.10,NNE,17,0.0,7.0,95,0.00,,---,0.02,VWS V14.01,2013-10-14 16:27:00,
2013-10-14 12:28:00,67.1,65.6,30.10,NNE,14,2.0,7.0,95,0.00,,---,0.02,VWS V14.01,2013-10-14 16:28:00,
2013-10-14 12:29:00,67.1,65.6,30.10,NNE,17,1.0,7.0,95,0.00,,---,0.02,VWS V14.01,2013-10-14 16:29:00,
2013-10-14 12:30:00,67.1,65.6,30.10,NE,35,2.0,9.0,95,0.00,,---,0.02,VWS V14.01,2013-10-14 16:30:00,
2013-10-14 12:31:00,67.1,65.6,30.10,NNE,24,6.0,6.0,95,0.00,,---,0.02,VWS V14.01,2013-10-14 16:31:00,
2013-10-14 12:32:00,67.1,65.6,30.10,NNE,17,2.0,7.0,95,0.00,,---,0.02,VWS V14.01,2013-10-14 16:32:00,
2013-10-14 12:33:00,67.1,65.6,30.10,NNE,13,3.0,7.0,95,0.00,,---,0.02,VWS V14.01,2013-10-14 16:33:00,
2013-10-14 12:34:00,67.1,65.6,30.10,NE,44,2.0,7.0,95,0.00,,---,0.02,VWS V14.01,2013-10-14 16:34:00,
2013-10-14 12:35:00,67.1,65.6,30.10,North,0,0.0,7.0,95,0.00,,---,0.02,VWS V14.01,2013-10-14 16:35:00,
2013-10-14 12:36:00,67.1,65.6,30.10,NNE,28,7.0,7.0,95,0.00,,---,0.02,VWS V14.01,2013-10-14 16:36:00,
2013-10-14 12:37:00,67.1,65.6,30.10,NE,49,3.0,7.0,95,0.00,,---,0.02,VWS V14.01,2013-10-14 16:37:00,
2013-10-14 12:38:00,67.1,65.3,30.10,NE,56,5.0,7.0,94,0.00,,---,0.02,VWS V14.01,2013-10-14 16:38:00,
2013-10-14 12:39:00,67.1,65.3,30.10,NE,56,0.0,7.0,94,0.00,,---,0.02,VWS V14.01,2013-10-14 16:39:00,
2013-10-14 12:40:00,67.1,65.3,30.10,NE,54,2.0,7.0,94,0.00,,---,0.02,VWS V14.01,2013-10-14 16:40:00,
2013-10-14 12:41:00,67.1,65.3,30.10,NNE,27,0.0,6.0,94,0.00,,---,0.02,VWS V14.01,2013-10-14 16:41:00,
2013-10-14 12:42:00,67.3,65.5,30.10,North,6,5.0,6.0,94,0.00,,---,0.02,VWS V14.01,2013-10-14 16:42:00,
2013-10-14 12:43:00,67.3,65.5,30.10,ENE,65,0.0,6.0,94,0.00,,---,0.02,VWS V14.01,2013-10-14 16:43:00,
2013-10-14 12:44:00,67.3,65.5,30.10,NE,47,0.0,6.0,94,0.00,,---,0.02,VWS V14.01,2013-10-14 16:44:00,
2013-10-14 12:45:00,67.3,65.5,30.09,ESE,104,0.0,6.0,94,0.00,,---,0.02,VWS V14.01,2013-10-14 16:45:00,
2013-10-14 12:46:00,67.3,65.5,30.09,North,0,2.0,6.0,94,0.00,,---,0.02,VWS V14.01,2013-10-14 16:46:00,
2013-10-14 12:47:00,67.3,65.5,30.09,NE,48,2.0,6.0,94,0.00,,---,0.02,VWS V14.01,2013-10-14 16:47:00,
2013-10-14 12:48:00,67.3,65.5,30.09,ENE,66,7.0,7.0,94,0.00,,---,0.02,VWS V14.01,2013-10-14 16:48:00,
2013-10-14 12:49:00,67.3,65.5,30.09,NNE,28,2.0,7.0,94,0.00,,---,0.02,VWS V14.01,2013-10-14 16:49:00,
2013-10-14 12:50:00,67.3,65.5,30.09,NNE,28,0.0,7.0,94,0.00,,---,0.02,VWS V14.01,2013-10-14 16:50:00,
2013-10-14 12:51:00,67.3,65.5,30.09,NE,56,0.0,1.0,94,0.00,,---,0.02,VWS V14.01,2013-10-14 16:51:00,
2013-10-14 12:52:00,67.3,65.5,30.09,ENE,68,2.0,2.0,94,0.00,,---,0.02,VWS V14.01,2013-10-14 16:52:00,
2013-10-14 12:53:00,67.3,65.5,30.09,ENE,61,3.0,5.0,94,0.00,,---,0.02,VWS V14.01,2013-10-14 16:53:00,
2013-10-14 12:54:00,67.3,65.5,30.09,NNE,27,0.0,5.0,94,0.00,,---,0.02,VWS V14.01,2013-10-14 16:54:00,
2013-10-14 12:55:00,67.3,65.5,30.09,NNE,31,5.0,8.0,94,0.00,,---,0.02,VWS V14.01,2013-10-14 16:55:00,
2013-10-14 12:56:00,67.3,65.5,30.09,NNE,32,0.0,8.0,94,0.00,,---,0.02,VWS V14.01,2013-10-14 16:56:00,
2013-10-14 12:57:00,67.3,65.5,30.09,North,6,2.0,8.0,94,0.00,,---,0.02,VWS V14.01,2013-10-14 16:57:00,
2013-10-14 12:58:00,67.3,65.5,30.09,NE,42,2.0,10.0,94,0.00,,---,0.02,VWS V14.01,2013-10-14 16:58:00,
2013-10-14 12:59:00,67.3,65.5,30.09,NE,52,6.0,10.0,94,0.00,,---,0.02,VWS V14.01,2013-10-14 16:59:00,
2013-10-14 13:00:00,67.3,65.5,30.09,NE,51,0.0,10.0,94,0.00,,---,0.02,VWS V14.01,2013-10-14 17:00:00,
2013-10-14 13:01:00,67.3,65.5,30.09,NNE,31,1.0,7.0,94,0.00,,---,0.02,VWS V14.01,2013-10-14 17:01:00,
2013-10-14 13:02:00,67.3,65.5,30.09,NNE,27,0.0,7.0,94,0.00,,---,0.02,VWS V14.01,2013-10-14 17:02:00,
2013-10-14 13:03:00,67.3,65.5,30.09,NE,40,2.0,7.0,94,0.00,,---,0.02,VWS V14.01,2013-10-14 17:03:00,
2013-10-14 13:04:00,67.3,65.5,30.09,NE,40,0.0,7.0,94,0.00,,---,0.02,VWS V14.01,2013-10-14 17:04:00,
2013-10-14 13:05:00,67.3,65.5,30.09,NNE,21,0.0,7.0,94,0.00,,---,0.02,VWS V14.01,2013-10-14 17:05:00,
2013-10-14 13:06:00,67.3,65.5,30.09,NE,42,5.0,7.0,94,0.00,,---,0.02,VWS V14.01,2013-10-14 17:06:00,
2013-10-14 13:07:00,67.3,65.5,30.09,NE,42,0.0,7.0,94,0.00,,---,0.02,VWS V14.01,2013-10-14 17:07:00,
2013-10-14 13:08:00,67.3,65.5,30.09,ENE,68,5.0,7.0,94,0.00,,---,0.02,VWS V14.01,2013-10-14 17:08:00,
2013-10-14 13:09:00,67.4,65.6,30.09,NNE,27,2.0,7.0,94,0.00,,---,0.02,VWS V14.01,2013-10-14 17:09:00,
2013-10-14 13:10:00,67.4,65.6,30.09,NNE,28,0.0,7.0,94,0.00,,---,0.02,VWS V14.01,2013-10-14 17:10:00,
2013-10-14 13:11:00,67.4,65.6,30.09,NE,38,6.0,6.0,94,0.00,,---,0.02,VWS V14.01,2013-10-14 17:11:00,
2013-10-14 13:12:00,67.4,65.6,30.09,NE,52,7.0,7.0,94,0.00,,---,0.02,VWS V14.01,2013-10-14 17:12:00,
2013-10-14 13:13:00,67.4,65.3,30.09,NNE,24,0.0,7.0,93,0.00,,---,0.02,VWS V14.01,2013-10-14 17:13:00,
2013-10-14 13:14:00,67.6,65.5,30.09,NE,42,3.0,7.0,93,0.00,,---,0.02,VWS V14.01,2013-10-14 17:14:00,
2013-10-14 13:15:00,67.6,65.8,30.08,NE,54,7.0,7.0,94,0.00,,---,0.02,VWS V14.01,2013-10-14 17:15:00,
2013-10-14 13:16:00,67.6,65.8,30.08,ENE,76,0.0,10.0,94,0.00,,---,0.02,VWS V14.01,2013-10-14 17:16:00,
2013-10-14 13:17:00,67.6,65.8,30.08,ENE,76,0.0,10.0,94,0.00,,---,0.02,VWS V14.01,2013-10-14 17:17:00,
2013-10-14 13:18:00,67.8,66.0,30.08,North,359,4.0,10.0,94,0.00,,---,0.02,VWS V14.01,2013-10-14 17:18:00,
2013-10-14 13:19:00,67.8,65.7,30.08,East,96,3.0,10.0,93,0.00,,---,0.02,VWS V14.01,2013-10-14 17:19:00,
2013-10-14 13:20:00,67.8,65.7,30.08,ENE,73,0.0,10.0,93,0.00,,---,0.02,VWS V14.01,2013-10-14 17:20:00,
2013-10-14 13:21:00,67.8,65.7,30.08,ENE,66,6.0,7.0,93,0.00,,---,0.02,VWS V14.01,2013-10-14 17:21:00,
2013-10-14 13:22:00,67.9,65.8,30.08,ENE,69,0.0,8.0,93,0.00,,---,0.02,VWS V14.01,2013-10-14 17:22:00,
2013-10-14 13:23:00,67.9,65.8,30.08,ENE,69,0.0,8.0,93,0.00,,---,0.02,VWS V14.01,2013-10-14 17:23:00,
2013-10-14 13:24:00,67.9,65.8,30.08,ENE,69,0.0,8.0,93,0.00,,---,0.02,VWS V14.01,2013-10-14 17:24:00,
2013-10-14 13:25:00,67.9,65.8,30.08,ENE,68,0.0,8.0,93,0.00,,---,0.02,VWS V14.01,2013-10-14 17:25:00,
2013-10-14 13:26:00,67.9,65.8,30.08,NE,34,2.0,8.0,93,0.00,,---,0.02,VWS V14.01,2013-10-14 17:26:00,
2013-10-14 13:27:00,67.9,65.8,30.08,NNE,18,3.0,11.0,93,0.00,,---,0.02,VWS V14.01,2013-10-14 17:27:00,
2013-10-14 13:28:00,67.9,65.5,30.08,NE,55,5.0,11.0,92,0.00,,---,0.02,VWS V14.01,2013-10-14 17:28:00,
2013-10-14 13:29:00,67.9,65.5,30.08,NNE,32,3.0,11.0,92,0.00,,---,0.02,VWS V14.01,2013-10-14 17:29:00,
2013-10-14 13:30:00,67.9,65.5,30.08,NE,49,2.0,11.0,92,0.00,,---,0.02,VWS V14.01,2013-10-14 17:30:00,
2013-10-14 13:31:00,67.9,65.5,30.08,North,10,1.0,5.0,92,0.00,,---,0.02,VWS V14.01,2013-10-14 17:31:00,
2013-10-14 13:32:00,67.9,65.5,30.08,NNE,25,5.0,6.0,92,0.00,,---,0.02,VWS V14.01,2013-10-14 17:32:00,
2013-10-14 13:33:00,67.9,65.5,30.08,ENE,62,3.0,6.0,92,0.00,,---,0.02,VWS V14.01,2013-10-14 17:33:00,
2013-10-14 13:34:00,67.8,65.4,30.08,NNE,31,3.0,6.0,92,0.00,,---,0.02,VWS V14.01,2013-10-14 17:34:00,
2013-10-14 13:35:00,67.8,65.4,30.08,NNE,31,0.0,6.0,92,0.00,,---,0.02,VWS V14.01,2013-10-14 17:35:00,
2013-10-14 13:36:00,67.8,65.4,30.08,NE,41,3.0,6.0,92,0.00,,---,0.02,VWS V14.01,2013-10-14 17:36:00,
2013-10-14 13:37:00,67.8,65.4,30.08,NNW,347,6.0,7.0,92,0.00,,---,0.02,VWS V14.01,2013-10-14 17:37:00,
2013-10-14 13:38:00,67.8,65.4,30.08,North,1,3.0,7.0,92,0.00,,---,0.02,VWS V14.01,2013-10-14 17:38:00,
2013-10-14 13:39:00,67.8,65.4,30.08,NNE,23,2.0,7.0,92,0.00,,---,0.02,VWS V14.01,2013-10-14 17:39:00,
2013-10-14 13:40:00,67.6,65.2,30.08,ENE,71,6.0,7.0,92,0.00,,---,0.02,VWS V14.01,2013-10-14 17:40:00,
2013-10-14 13:41:00,67.6,65.2,30.08,ENE,58,6.0,10.0,92,0.00,,---,0.02,VWS V14.01,2013-10-14 17:41:00,
2013-10-14 13:42:00,67.6,65.2,30.08,North,7,2.0,10.0,92,0.00,,---,0.02,VWS V14.01,2013-10-14 17:42:00,
2013-10-14 13:43:00,67.6,65.2,30.08,North,4,0.0,10.0,92,0.00,,---,0.02,VWS V14.01,2013-10-14 17:43:00,
2013-10-14 13:44:00,67.6,65.2,30.08,East,80,7.0,10.0,92,0.00,,---,0.02,VWS V14.01,2013-10-14 17:44:00,
2013-10-14 13:45:00,67.6,65.2,30.08,NE,38,5.0,10.0,92,0.00,,---,0.02,VWS V14.01,2013-10-14 17:45:00,
2013-10-14 13:46:00,67.6,65.2,30.08,NNE,16,2.0,10.0,92,0.00,,---,0.02,VWS V14.01,2013-10-14 17:46:00,
2013-10-14 13:47:00,67.6,65.2,30.08,NNE,32,0.0,10.0,92,0.00,,---,0.02,VWS V14.01,2013-10-14 17:47:00,
2013-10-14 13:48:00,67.6,65.2,30.08,NNE,32,0.0,10.0,92,0.00,,---,0.02,VWS V14.01,2013-10-14 17:48:00,
2013-10-14 13:49:00,67.6,65.2,30.08,NE,40,2.0,10.0,92,0.00,,---,0.02,VWS V14.01,2013-10-14 17:49:00,
2013-10-14 13:50:00,67.4,65.0,30.08,NE,48,3.0,10.0,92,0.00,,---,0.02,VWS V14.01,2013-10-14 17:50:00,
2013-10-14 13:51:00,67.4,65.3,30.08,NNE,23,0.0,3.0,93,0.00,,---,0.02,VWS V14.01,2013-10-14 17:51:00,
2013-10-14 13:52:00,67.4,65.3,30.08,NNE,23,0.0,3.0,93,0.00,,---,0.02,VWS V14.01,2013-10-14 17:52:00,
2013-10-14 13:53:00,67.4,65.3,30.08,NNE,21,8.0,8.0,93,0.00,,---,0.02,VWS V14.01,2013-10-14 17:53:00,
2013-10-14 13:54:00,67.4,65.3,30.08,NE,38,2.0,11.0,93,0.00,,---,0.02,VWS V14.01,2013-10-14 17:54:00,
2013-10-14 13:55:00,67.4,65.3,30.08,NE,40,0.0,11.0,93,0.00,,---,0.02,VWS V14.01,2013-10-14 17:55:00,
2013-10-14 13:56:00,67.4,65.0,30.08,NNE,14,0.0,11.0,92,0.00,,---,0.02,VWS V14.01,2013-10-14 17:56:00,
2013-10-14 13:57:00,67.4,65.3,30.08,NNE,27,3.0,11.0,93,0.00,,---,0.02,VWS V14.01,2013-10-14 17:57:00,
2013-10-14 13:58:00,67.4,65.3,30.08,NE,42,0.0,11.0,93,0.00,,---,0.02,VWS V14.01,2013-10-14 17:58:00,
2013-10-14 13:59:00,67.4,65.3,30.08,NE,45,3.0,11.0,93,0.00,,---,0.02,VWS V14.01,2013-10-14 17:59:00,
2013-10-14 14:00:00,67.4,65.3,30.07,NNE,28,0.0,11.0,93,0.00,,---,0.02,VWS V14.01,2013-10-14 18:00:00,
2013-10-14 14:01:00,67.4,65.3,30.07,North,7,0.0,0.0,93,0.00,,---,0.02,VWS V14.01,2013-10-14 18:01:00,
2013-10-14 14:02:00,67.4,65.6,30.07,NNE,28,0.0,3.0,94,0.00,,---,0.02,VWS V14.01,2013-10-14 18:02:00,
2013-10-14 14:03:00,67.4,65.3,30.07,NE,35,0.0,7.0,93,0.00,,---,0.02,VWS V14.01,2013-10-14 18:03:00,
2013-10-14 14:04:00,67.4,65.3,30.07,NE,35,0.0,7.0,93,0.00,,---,0.02,VWS V14.01,2013-10-14 18:04:00,
2013-10-14 14:05:00,67.4,65.3,30.07,NNE,31,3.0,7.0,93,0.00,,---,0.02,VWS V14.01,2013-10-14 18:05:00,
2013-10-14 14:06:00,67.4,65.3,30.07,NNE,28,5.0,8.0,93,0.00,,---,0.02,VWS V14.01,2013-10-14 18:06:00,
2013-10-14 14:07:00,67.4,65.3,30.07,NE,56,0.0,8.0,93,0.00,,---,0.02,VWS V14.01,2013-10-14 18:07:00,
2013-10-14 14:08:00,67.4,65.3,30.07,ENE,65,2.0,8.0,93,0.00,,---,0.02,VWS V14.01,2013-10-14 18:08:00,
2013-10-14 14:09:00,67.4,65.3,30.07,NNE,17,4.0,8.0,93,0.00,,---,0.02,VWS V14.01,2013-10-14 18:09:00,
2013-10-14 14:10:00,67.4,65.3,30.07,ENE,61,0.0,8.0,93,0.00,,---,0.02,VWS V14.01,2013-10-14 18:10:00,
2013-10-14 14:11:00,67.4,65.3,30.07,ENE,61,0.0,0.0,93,0.00,,---,0.02,VWS V14.01,2013-10-14 18:11:00,
2013-10-14 14:12:00,67.4,65.3,30.07,ENE,61,0.0,0.0,93,0.00,,---,0.02,VWS V14.01,2013-10-14 18:12:00,
2013-10-14 14:13:00,67.4,65.3,30.07,NNE,21,0.0,1.0,93,0.00,,---,0.02,VWS V14.01,2013-10-14 18:13:00,
2013-10-14 14:14:00,67.4,65.3,30.07,NNE,17,5.0,5.0,93,0.00,,---,0.02,VWS V14.01,2013-10-14 18:14:00,
2013-10-14 14:15:00,67.4,65.6,30.07,NNE,18,3.0,7.0,94,0.00,,---,0.02,VWS V14.01,2013-10-14 18:15:00,
2013-10-14 14:16:00,67.4,65.6,30.07,NE,45,3.0,8.0,94,0.00,,---,0.02,VWS V14.01,2013-10-14 18:16:00,
2013-10-14 14:17:00,67.4,65.3,30.07,ENE,66,0.0,8.0,93,0.00,,---,0.02,VWS V14.01,2013-10-14 18:17:00,
2013-10-14 14:18:00,67.4,65.3,30.07,NNE,32,0.0,8.0,93,0.00,,---,0.02,VWS V14.01,2013-10-14 18:18:00,
2013-10-14 14:19:00,67.4,65.3,30.07,NNE,23,2.0,8.0,93,0.00,,---,0.02,VWS V14.01,2013-10-14 18:19:00,
2013-10-14 14:20:00,67.4,65.3,30.07,North,11,7.0,8.0,93,0.00,,---,0.02,VWS V14.01,2013-10-14 18:20:00,
2013-10-14 14:21:00,67.4,65.3,30.07,North,0,1.0,10.0,93,0.00,,---,0.02,VWS V14.01,2013-10-14 18:21:00,
2013-10-14 14:22:00,67.4,65.0,30.07,NNE,20,2.0,10.0,92,0.00,,---,0.02,VWS V14.01,2013-10-14 18:22:00,
2013-10-14 14:23:00,67.4,65.0,30.07,ENE,69,2.0,10.0,92,0.00,,---,0.02,VWS V14.01,2013-10-14 18:23:00,
2013-10-14 14:24:00,67.4,65.0,30.07,North,0,3.0,10.0,92,0.00,,---,0.02,VWS V14.01,2013-10-14 18:24:00,
2013-10-14 14:25:00,67.4,65.3,30.07,NE,38,2.0,10.0,93,0.00,,---,0.02,VWS V14.01,2013-10-14 18:25:00,
2013-10-14 14:26:00,67.4,65.3,30.07,NNE,27,1.0,10.0,93,0.00,,---,0.02,VWS V14.01,2013-10-14 18:26:00,
2013-10-14 14:27:00,67.4,65.3,30.07,NNE,25,2.0,10.0,93,0.00,,---,0.02,VWS V14.01,2013-10-14 18:27:00,
2013-10-14 14:28:00,67.4,65.3,30.07,NNE,17,0.0,10.0,93,0.00,,---,0.02,VWS V14.01,2013-10-14 18:28:00,
2013-10-14 14:29:00,67.4,65.3,30.07,NE,35,1.0,10.0,93,0.00,,---,0.02,VWS V14.01,2013-10-14 18:29:00,
2013-10-14 14:30:00,67.4,65.3,30.06,NE,35,0.0,10.0,93,0.00,,---,0.02,VWS V14.01,2013-10-14 18:30:00,
2013-10-14 14:31:00,67.4,65.3,30.06,ENE,62,4.0,7.0,93,0.00,,---,0.02,VWS V14.01,2013-10-14 18:31:00,
2013-10-14 14:32:00,67.4,65.3,30.06,NNE,25,6.0,7.0,93,0.00,,---,0.02,VWS V14.01,2013-10-14 18:32:00,
2013-10-14 14:33:00,67.4,65.3,30.06,NE,56,2.0,7.0,93,0.00,,---,0.02,VWS V14.01,2013-10-14 18:33:00,
2013-10-14 14:34:00,67.4,65.0,30.06,NE,48,0.0,7.0,92,0.00,,---,0.02,VWS V14.01,2013-10-14 18:34:00,
2013-10-14 14:35:00,67.4,65.0,30.06,NE,48,0.0,7.0,92,0.00,,---,0.02,VWS V14.01,2013-10-14 18:35:00,
2013-10-14 14:36:00,67.4,65.0,30.06,NE,48,0.0,7.0,92,0.00,,---,0.02,VWS V14.01,2013-10-14 18:36:00,
2013-10-14 14:37:00,67.4,65.3,30.06,NE,48,0.0,7.0,93,0.00,,---,0.02,VWS V14.01,2013-10-14 18:37:00,
2013-10-14 14:38:00,67.4,65.3,30.06,NNE,18,0.0,7.0,93,0.00,,---,0.02,VWS V14.01,2013-10-14 18:38:00,
2013-10-14 14:39:00,67.4,65.3,30.06,NNE,24,5.0,7.0,93,0.00,,---,0.02,VWS V14.01,2013-10-14 18:39:00,
2013-10-14 14:40:00,67.4,65.3,30.06,NE,48,7.0,7.0,93,0.00,,---,0.02,VWS V14.01,2013-10-14 18:40:00,
2013-10-14 14:41:00,67.4,65.3,30.06,NNE,28,5.0,6.0,93,0.00,,---,0.02,VWS V14.01,2013-10-14 18:41:00,
2013-10-14 14:42:00,67.4,65.0,30.06,NE,48,1.0,6.0,92,0.00,,---,0.02,VWS V14.01,2013-10-14 18:42:00,
2013-10-14 14:43:00,67.4,65.0,30.06,NNE,18,4.0,6.0,92,0.00,,---,0.02,VWS V14.01,2013-10-14 18:43:00,
2013-10-14 14:44:00,67.4,65.3,30.06,NNE,23,2.0,6.0,93,0.00,,---,0.02,VWS V14.01,2013-10-14 18:44:00,
2013-10-14 14:45:00,67.4,65.3,30.06,NNE,25,3.0,6.0,93,0.00,,---,0.02,VWS V14.01,2013-10-14 18:45:00,
2013-10-14 14:46:00,67.4,65.0,30.06,NE,52,1.0,6.0,92,0.00,,---,0.02,VWS V14.01,2013-10-14 18:46:00,
2013-10-14 14:47:00,67.4,65.0,30.06,NE,52,0.0,6.0,92,0.00,,---,0.02,VWS V14.01,2013-10-14 18:47:00,
2013-10-14 14:48:00,67.4,65.0,30.06,NNE,23,1.0,6.0,92,0.00,,---,0.02,VWS V14.01,2013-10-14 18:48:00,
2013-10-14 14:49:00,67.4,65.0,30.06,NNE,23,0.0,6.0,92,0.00,,---,0.02,VWS V14.01,2013-10-14 18:49:00,
2013-10-14 14:50:00,67.4,65.3,30.06,NNE,23,0.0,6.0,93,0.00,,---,0.02,VWS V14.01,2013-10-14 18:50:00,
2013-10-14 14:51:00,67.6,65.5,30.06,ENE,75,0.0,0.0,93,0.00,,---,0.02,VWS V14.01,2013-10-14 18:51:00,
2013-10-14 14:52:00,67.6,65.5,30.06,ENE,75,0.0,0.0,93,0.00,,---,0.02,VWS V14.01,2013-10-14 18:52:00,
2013-10-14 14:53:00,67.6,65.5,30.06,NNE,17,0.0,0.0,93,0.00,,---,0.02,VWS V14.01,2013-10-14 18:53:00,
2013-10-14 14:54:00,67.6,65.8,30.06,NNE,25,0.0,0.0,94,0.00,,---,0.02,VWS V14.01,2013-10-14 18:54:00,
2013-10-14 14:55:00,67.6,65.5,30.06,NNE,25,0.0,0.0,93,0.00,,---,0.02,VWS V14.01,2013-10-14 18:55:00,
2013-10-14 14:56:00,67.6,65.5,30.06,NNE,25,0.0,0.0,93,0.00,,---,0.02,VWS V14.01,2013-10-14 18:56:00,
2013-10-14 14:57:00,67.6,65.5,30.06,NNE,25,0.0,0.0,93,0.00,,---,0.02,VWS V14.01,2013-10-14 18:57:00,
2013-10-14 14:58:00,67.6,65.5,30.06,NNE,27,3.0,3.0,93,0.00,,---,0.02,VWS V14.01,2013-10-14 18:58:00,
2013-10-14 14:59:00,67.6,65.5,30.06,NNE,23,2.0,7.0,93,0.00,,---,0.02,VWS V14.01,2013-10-14 18:59:00,
2013-10-14 15:00:00,67.8,65.7,30.06,NNE,23,0.0,7.0,93,0.00,,---,0.02,VWS V14.01,2013-10-14 19:00:00,
2013-10-14 15:01:00,67.8,65.4,30.06,NE,40,2.0,2.0,92,0.00,,---,0.02,VWS V14.01,2013-10-14 19:01:00,
2013-10-14 15:02:00,67.8,65.4,30.06,NNE,21,0.0,2.0,92,0.00,,---,0.02,VWS V14.01,2013-10-14 19:02:00,
2013-10-14 15:03:00,67.8,65.4,30.06,North,7,0.0,2.0,92,0.00,,---,0.02,VWS V14.01,2013-10-14 19:03:00,
2013-10-14 15:04:00,67.8,65.4,30.06,North,7,0.0,2.0,92,0.00,,---,0.02,VWS V14.01,2013-10-14 19:04:00,
2013-10-14 15:05:00,67.8,65.4,30.06,North,10,2.0,3.0,92,0.00,,---,0.02,VWS V14.01,2013-10-14 19:05:00,
2013-10-14 15:06:00,67.8,65.4,30.06,NNE,17,2.0,3.0,92,0.00,,---,0.02,VWS V14.01,2013-10-14 19:06:00,
2013-10-14 15:07:00,67.8,65.4,30.06,NNE,17,0.0,3.0,92,0.00,,---,0.02,VWS V14.01,2013-10-14 19:07:00,
2013-10-14 15:08:00,67.8,65.4,30.06,NNE,23,0.0,3.0,92,0.00,,---,0.02,VWS V14.01,2013-10-14 19:08:00,
2013-10-14 15:09:00,67.8,65.4,30.06,NE,38,0.0,3.0,92,0.00,,---,0.02,VWS V14.01,2013-10-14 19:09:00,
2013-10-14 15:10:00,67.8,65.4,30.06,NE,38,0.0,3.0,92,0.00,,---,0.02,VWS V14.01,2013-10-14 19:10:00,
2013-10-14 15:11:00,67.8,65.4,30.06,NE,38,3.0,3.0,92,0.00,,---,0.02,VWS V14.01,2013-10-14 19:11:00,
2013-10-14 15:12:00,67.8,65.4,30.06,ENE,59,0.0,5.0,92,0.00,,---,0.02,VWS V14.01,2013-10-14 19:12:00,
2013-10-14 15:13:00,67.8,65.4,30.06,NE,40,1.0,5.0,92,0.00,,---,0.02,VWS V14.01,2013-10-14 19:13:00,
2013-10-14 15:14:00,67.8,65.4,30.06,NE,40,0.0,5.0,92,0.00,,---,0.02,VWS V14.01,2013-10-14 19:14:00,
2013-10-14 15:15:00,67.8,65.4,30.07,ESE,123,0.0,5.0,92,0.00,,---,0.02,VWS V14.01,2013-10-14 19:15:00,
2013-10-14 15:16:00,67.8,65.4,30.07,NE,51,0.0,5.0,92,0.00,,---,0.02,VWS V14.01,2013-10-14 19:16:00,
2013-10-14 15:17:00,67.8,65.4,30.07,NE,49,0.0,5.0,92,0.00,,---,0.02,VWS V14.01,2013-10-14 19:17:00,
2013-10-14 15:18:00,67.8,65.4,30.07,NE,49,0.0,5.0,92,0.00,,---,0.02,VWS V14.01,2013-10-14 19:18:00,
2013-10-14 15:19:00,67.8,65.4,30.07,NE,48,0.0,5.0,92,0.00,,---,0.02,VWS V14.01,2013-10-14 19:19:00,
2013-10-14 15:20:00,67.6,65.2,30.07,NE,48,0.0,5.0,92,0.00,,---,0.02,VWS V14.01,2013-10-14 19:20:00,
2013-10-14 15:21:00,67.6,65.5,30.07,NE,48,0.0,0.0,93,0.00,,---,0.02,VWS V14.01,2013-10-14 19:21:00,
2013-10-14 15:22:00,67.6,65.5,30.07,NE,48,0.0,0.0,93,0.00,,---,0.02,VWS V14.01,2013-10-14 19:22:00,
2013-10-14 15:23:00,67.6,65.5,30.07,NE,38,0.0,0.0,93,0.00,,---,0.02,VWS V14.01,2013-10-14 19:23:00,
2013-10-14 15:24:00,67.6,65.5,30.07,NE,38,0.0,0.0,93,0.00,,---,0.02,VWS V14.01,2013-10-14 19:24:00,
2013-10-14 15:25:00,67.6,65.5,30.07,NE,38,0.0,0.0,93,0.00,,---,0.02,VWS V14.01,2013-10-14 19:25:00,
2013-10-14 15:26:00,67.6,65.5,30.07,NE,38,0.0,0.0,93,0.00,,---,0.02,VWS V14.01,2013-10-14 19:26:00,
2013-10-14 15:27:00,67.6,65.5,30.07,NE,35,6.0,6.0,93,0.00,,---,0.02,VWS V14.01,2013-10-14 19:27:00,
2013-10-14 15:28:00,67.6,65.5,30.07,North,0,3.0,6.0,93,0.00,,---,0.02,VWS V14.01,2013-10-14 19:28:00,
2013-10-14 15:29:00,67.6,65.2,30.07,ENE,62,1.0,6.0,92,0.00,,---,0.02,VWS V14.01,2013-10-14 19:29:00,
2013-10-14 15:30:00,67.6,65.2,30.06,ENE,62,0.0,6.0,92,0.00,,---,0.02,VWS V14.01,2013-10-14 19:30:00,
2013-10-14 15:31:00,67.6,65.2,30.06,NE,52,0.0,0.0,92,0.00,,---,0.02,VWS V14.01,2013-10-14 19:31:00,
2013-10-14 15:32:00,67.6,65.2,30.06,NNE,21,3.0,3.0,92,0.00,,---,0.02,VWS V14.01,2013-10-14 19:32:00,
2013-10-14 15:33:00,67.6,65.2,30.06,NNE,27,2.0,6.0,92,0.00,,---,0.02,VWS V14.01,2013-10-14 19:33:00,
2013-10-14 15:34:00,67.6,65.2,30.06,NE,56,3.0,6.0,92,0.00,,---,0.02,VWS V14.01,2013-10-14 19:34:00,
2013-10-14 15:35:00,67.6,65.2,30.06,NNE,16,2.0,6.0,92,0.00,,---,0.02,VWS V14.01,2013-10-14 19:35:00,
2013-10-14 15:36:00,67.6,65.2,30.06,NNE,16,0.0,6.0,92,0.00,,---,0.02,VWS V14.01,2013-10-14 19:36:00,
2013-10-14 15:37:00,67.6,65.2,30.06,NNE,16,0.0,6.0,92,0.00,,---,0.02,VWS V14.01,2013-10-14 19:37:00,
2013-10-14 15:38:00,67.6,65.2,30.06,NNE,16,0.0,6.0,92,0.00,,---,0.02,VWS V14.01,2013-10-14 19:38:00,
2013-10-14 15:39:00,67.6,65.2,30.06,NNE,16,0.0,6.0,92,0.00,,---,0.02,VWS V14.01,2013-10-14 19:39:00,
2013-10-14 15:40:00,67.6,65.2,30.06,ENE,75,0.0,6.0,92,0.00,,---,0.02,VWS V14.01,2013-10-14 19:40:00,
2013-10-14 15:41:00,67.6,65.2,30.06,ENE,75,0.0,0.0,92,0.00,,---,0.02,VWS V14.01,2013-10-14 19:41:00,
2013-10-14 15:42:00,67.6,65.2,30.06,ENE,75,0.0,0.0,92,0.00,,---,0.02,VWS V14.01,2013-10-14 19:42:00,
2013-10-14 15:43:00,67.6,65.2,30.06,NNE,25,0.0,1.0,92,0.00,,---,0.02,VWS V14.01,2013-10-14 19:43:00,
2013-10-14 15:44:00,67.6,65.5,30.06,NNE,25,0.0,1.0,93,0.00,,---,0.02,VWS V14.01,2013-10-14 19:44:00,
2013-10-14 15:45:00,67.6,65.5,30.06,NNE,25,0.0,1.0,93,0.00,,---,0.02,VWS V14.01,2013-10-14 19:45:00,
2013-10-14 15:46:00,67.6,65.5,30.06,NNE,25,0.0,1.0,93,0.00,,---,0.02,VWS V14.01,2013-10-14 19:46:00,
2013-10-14 15:47:00,67.6,65.5,30.06,NNE,25,0.0,1.0,93,0.00,,---,0.02,VWS V14.01,2013-10-14 19:47:00,
2013-10-14 15:48:00,67.6,65.5,30.06,NNE,25,0.0,1.0,93,0.00,,---,0.02,VWS V14.01,2013-10-14 19:48:00,
2013-10-14 15:49:00,67.6,65.5,30.06,ENE,75,1.0,3.0,93,0.00,,---,0.02,VWS V14.01,2013-10-14 19:49:00,
2013-10-14 15:50:00,67.6,65.5,30.06,ENE,75,0.0,3.0,93,0.00,,---,0.02,VWS V14.01,2013-10-14 19:50:00,
2013-10-14 15:51:00,67.6,65.5,30.06,ENE,75,0.0,0.0,93,0.00,,---,0.02,VWS V14.01,2013-10-14 19:51:00,
2013-10-14 15:52:00,67.6,65.5,30.06,ENE,75,0.0,0.0,93,0.00,,---,0.02,VWS V14.01,2013-10-14 19:52:00,
2013-10-14 15:53:00,67.6,65.5,30.06,ENE,75,0.0,0.0,93,0.00,,---,0.02,VWS V14.01,2013-10-14 19:53:00,
2013-10-14 15:54:00,67.6,65.5,30.06,ENE,75,0.0,0.0,93,0.00,,---,0.02,VWS V14.01,2013-10-14 19:54:00,
2013-10-14 15:55:00,67.6,65.5,30.06,NNE,31,6.0,6.0,93,0.00,,---,0.02,VWS V14.01,2013-10-14 19:55:00,
2013-10-14 15:56:00,67.6,65.5,30.06,NNE,27,0.0,6.0,93,0.00,,---,0.02,VWS V14.01,2013-10-14 19:56:00,
2013-10-14 15:57:00,67.6,65.5,30.06,NNE,27,0.0,6.0,93,0.00,,---,0.02,VWS V14.01,2013-10-14 19:57:00,
2013-10-14 15:58:00,67.6,65.5,30.06,WSW,244,0.0,6.0,93,0.00,,---,0.02,VWS V14.01,2013-10-14 19:58:00,
2013-10-14 15:59:00,67.6,65.5,30.06,WSW,244,0.0,6.0,93,0.00,,---,0.02,VWS V14.01,2013-10-14 19:59:00,
2013-10-14 16:00:00,67.6,65.5,30.06,WSW,244,0.0,6.0,93,0.00,,---,0.02,VWS V14.01,2013-10-14 20:00:00,
2013-10-14 16:01:00,67.6,65.5,30.06,NNE,30,3.0,3.0,93,0.00,,---,0.02,VWS V14.01,2013-10-14 20:01:00,
2013-10-14 16:02:00,67.6,65.5,30.06,NNE,30,0.0,3.0,93,0.00,,---,0.02,VWS V14.01,2013-10-14 20:02:00,
2013-10-14 16:03:00,67.6,65.5,30.06,NNE,30,0.0,3.0,93,0.00,,---,0.02,VWS V14.01,2013-10-14 20:03:00,
2013-10-14 16:04:00,67.6,65.5,30.06,NNE,30,0.0,3.0,93,0.00,,---,0.02,VWS V14.01,2013-10-14 20:04:00,
2013-10-14 16:05:00,67.6,65.5,30.06,NNE,31,0.0,3.0,93,0.00,,---,0.02,VWS V14.01,2013-10-14 20:05:00,
2013-10-14 16:06:00,67.6,65.5,30.06,NNE,14,0.0,3.0,93,0.00,,---,0.02,VWS V14.01,2013-10-14 20:06:00,
2013-10-14 16:07:00,67.6,65.2,30.06,NNE,14,0.0,3.0,92,0.00,,---,0.02,VWS V14.01,2013-10-14 20:07:00,
2013-10-14 16:08:00,67.6,65.2,30.06,NE,41,6.0,6.0,92,0.00,,---,0.02,VWS V14.01,2013-10-14 20:08:00,
2013-10-14 16:09:00,67.6,65.2,30.06,North,7,2.0,7.0,92,0.00,,---,0.02,VWS V14.01,2013-10-14 20:09:00,
2013-10-14 16:10:00,67.6,65.2,30.06,North,7,0.0,7.0,92,0.00,,---,0.02,VWS V14.01,2013-10-14 20:10:00,
2013-10-14 16:11:00,67.6,65.2,30.06,North,7,0.0,0.0,92,0.00,,---,0.02,VWS V14.01,2013-10-14 20:11:00,
2013-10-14 16:12:00,67.6,65.2,30.06,North,7,0.0,0.0,92,0.00,,---,0.02,VWS V14.01,2013-10-14 20:12:00,
2013-10-14 16:13:00,67.6,65.2,30.06,North,7,0.0,0.0,92,0.00,,---,0.02,VWS V14.01,2013-10-14 20:13:00,
2013-10-14 16:14:00,67.6,65.2,30.06,NNE,13,1.0,2.0,92,0.00,,---,0.02,VWS V14.01,2013-10-14 20:14:00,
2013-10-14 16:15:00,67.6,65.2,30.06,NNE,18,0.0,4.0,92,0.00,,---,0.02,VWS V14.01,2013-10-14 20:15:00,
2013-10-14 16:16:00,67.6,65.2,30.06,NNE,18,0.0,4.0,92,0.00,,---,0.02,VWS V14.01,2013-10-14 20:16:00,
2013-10-14 16:17:00,67.6,65.2,30.06,NNE,18,0.0,4.0,92,0.00,,---,0.02,VWS V14.01,2013-10-14 20:17:00,
2013-10-14 16:18:00,67.6,65.2,30.06,NNE,18,0.0,4.0,92,0.00,,---,0.02,VWS V14.01,2013-10-14 20:18:00,
2013-10-14 16:19:00,67.6,65.2,30.06,NNE,18,0.0,4.0,92,0.00,,---,0.02,VWS V14.01,2013-10-14 20:19:00,
2013-10-14 16:20:00,67.6,65.2,30.06,NNE,21,1.0,4.0,92,0.00,,---,0.02,VWS V14.01,2013-10-14 20:20:00,
2013-10-14 16:21:00,67.6,65.2,30.06,NE,44,1.0,1.0,92,0.00,,---,0.02,VWS V14.01,2013-10-14 20:21:00,
2013-10-14 16:22:00,67.6,65.2,30.06,NE,44,0.0,2.0,92,0.00,,---,0.02,VWS V14.01,2013-10-14 20:22:00,
2013-10-14 16:23:00,67.6,65.2,30.06,NE,44,0.0,2.0,92,0.00,,---,0.02,VWS V14.01,2013-10-14 20:23:00,
2013-10-14 16:24:00,67.6,65.2,30.06,NE,47,1.0,2.0,92,0.00,,---,0.02,VWS V14.01,2013-10-14 20:24:00,
2013-10-14 16:25:00,67.6,65.2,30.06,NE,44,0.0,2.0,92,0.00,,---,0.02,VWS V14.01,2013-10-14 20:25:00,
2013-10-14 16:26:00,67.6,65.2,30.06,NNE,21,1.0,3.0,92,0.00,,---,0.02,VWS V14.01,2013-10-14 20:26:00,
2013-10-14 16:27:00,67.6,65.2,30.06,NE,49,0.0,3.0,92,0.00,,---,0.02,VWS V14.01,2013-10-14 20:27:00,
2013-10-14 16:28:00,67.6,65.2,30.06,NE,52,0.0,3.0,92,0.00,,---,0.02,VWS V14.01,2013-10-14 20:28:00,
2013-10-14 16:29:00,67.6,65.2,30.06,NE,52,0.0,3.0,92,0.00,,---,0.02,VWS V14.01,2013-10-14 20:29:00,
2013-10-14 16:30:00,67.6,65.2,30.06,NE,52,0.0,3.0,92,0.00,,---,0.02,VWS V14.01,2013-10-14 20:30:00,
2013-10-14 16:31:00,67.6,65.2,30.06,NNE,14,0.0,1.0,92,0.00,,---,0.02,VWS V14.01,2013-10-14 20:31:00,
2013-10-14 16:32:00,67.6,65.2,30.06,NNE,16,3.0,3.0,92,0.00,,---,0.02,VWS V14.01,2013-10-14 20:32:00,
2013-10-14 16:33:00,67.6,65.2,30.06,NE,42,2.0,4.0,92,0.00,,---,0.02,VWS V14.01,2013-10-14 20:33:00,
2013-10-14 16:34:00,67.6,65.2,30.06,NNE,30,2.0,4.0,92,0.00,,---,0.02,VWS V14.01,2013-10-14 20:34:00,
2013-10-14 16:35:00,67.6,64.9,30.06,NE,37,2.0,4.0,91,0.00,,---,0.02,VWS V14.01,2013-10-14 20:35:00,
2013-10-14 16:36:00,67.6,64.9,30.06,NE,37,0.0,4.0,91,0.00,,---,0.02,VWS V14.01,2013-10-14 20:36:00,
2013-10-14 16:37:00,67.6,64.9,30.06,NE,37,0.0,4.0,91,0.00,,---,0.02,VWS V14.01,2013-10-14 20:37:00,
2013-10-14 16:38:00,67.6,64.9,30.06,NE,35,3.0,4.0,91,0.00,,---,0.02,VWS V14.01,2013-10-14 20:38:00,
2013-10-14 16:39:00,67.6,64.9,30.06,North,7,0.0,6.0,91,0.00,,---,0.02,VWS V14.01,2013-10-14 20:39:00,
2013-10-14 16:40:00,67.6,64.9,30.06,ENE,59,1.0,2.0,91,0.00,,---,0.02,VWS V14.01,2013-10-14 20:40:00,
2013-10-14 16:41:00,67.6,64.9,30.06,ENE,59,0.0,2.0,91,0.00,,---,0.02,VWS V14.01,2013-10-14 20:41:00,
2013-10-14 16:42:00,67.6,64.9,30.06,NNE,21,1.0,2.0,91,0.00,,---,0.02,VWS V14.01,2013-10-14 20:42:00,
2013-10-14 16:43:00,67.6,64.9,30.06,NNE,32,4.0,6.0,91,0.00,,---,0.02,VWS V14.01,2013-10-14 20:43:00,
2013-10-14 16:44:00,67.6,64.9,30.06,NE,52,0.0,6.0,91,0.00,,---,0.02,VWS V14.01,2013-10-14 20:44:00,
2013-10-14 16:45:00,67.6,64.9,30.05,NE,52,0.0,6.0,91,0.00,,---,0.02,VWS V14.01,2013-10-14 20:45:00,
2013-10-14 16:46:00,67.6,64.9,30.05,NNE,30,3.0,6.0,91,0.00,,---,0.02,VWS V14.01,2013-10-14 20:46:00,
2013-10-14 16:47:00,67.6,64.9,30.05,NE,37,4.0,7.0,91,0.00,,---,0.02,VWS V14.01,2013-10-14 20:47:00,
2013-10-14 16:48:00,67.6,64.9,30.05,NE,40,0.0,7.0,91,0.00,,---,0.02,VWS V14.01,2013-10-14 20:48:00,
2013-10-14 16:49:00,67.6,64.9,30.05,NNE,25,2.0,7.0,91,0.00,,---,0.02,VWS V14.01,2013-10-14 20:49:00,
2013-10-14 16:50:00,67.6,64.9,30.05,ENE,72,0.0,7.0,91,0.00,,---,0.02,VWS V14.01,2013-10-14 20:50:00,
2013-10-14 16:51:00,67.6,64.9,30.05,ENE,72,0.0,0.0,91,0.00,,---,0.02,VWS V14.01,2013-10-14 20:51:00,
2013-10-14 16:52:00,67.6,64.9,30.05,North,6,1.0,3.0,91,0.00,,---,0.02,VWS V14.01,2013-10-14 20:52:00,
2013-10-14 16:53:00,67.6,65.2,30.05,NE,44,5.0,5.0,92,0.00,,---,0.02,VWS V14.01,2013-10-14 20:53:00,
2013-10-14 16:54:00,67.6,64.9,30.05,NE,55,0.0,5.0,91,0.00,,---,0.02,VWS V14.01,2013-10-14 20:54:00,
2013-10-14 16:55:00,67.6,64.9,30.05,NE,55,0.0,5.0,91,0.00,,---,0.02,VWS V14.01,2013-10-14 20:55:00,
2013-10-14 16:56:00,67.6,65.2,30.05,NNE,17,2.0,5.0,92,0.00,,---,0.02,VWS V14.01,2013-10-14 20:56:00,
2013-10-14 16:57:00,67.6,65.2,30.05,NNE,23,4.0,5.0,92,0.00,,---,0.02,VWS V14.01,2013-10-14 20:57:00,
2013-10-14 16:58:00,67.6,64.9,30.05,NE,38,2.0,8.0,91,0.00,,---,0.02,VWS V14.01,2013-10-14 20:58:00,
2013-10-14 16:59:00,67.6,64.9,30.05,NE,45,8.0,8.0,91,0.00,,---,0.02,VWS V14.01,2013-10-14 20:59:00,
2013-10-14 17:00:00,67.6,64.9,30.06,North,1,5.0,8.0,91,0.00,,---,0.02,VWS V14.01,2013-10-14 21:00:00,
2013-10-14 17:01:00,67.6,64.9,30.06,North,3,2.0,8.0,91,0.00,,---,0.02,VWS V14.01,2013-10-14 21:01:00,
2013-10-14 17:02:00,67.6,64.9,30.06,NNE,31,2.0,8.0,91,0.00,,---,0.02,VWS V14.01,2013-10-14 21:02:00,
2013-10-14 17:03:00,67.6,64.9,30.06,NNE,24,6.0,8.0,91,0.00,,---,0.02,VWS V14.01,2013-10-14 21:03:00,
2013-10-14 17:04:00,67.6,64.9,30.06,NE,37,5.0,8.0,91,0.00,,---,0.02,VWS V14.01,2013-10-14 21:04:00,
2013-10-14 17:05:00,67.6,64.9,30.06,NNE,14,0.0,8.0,91,0.00,,---,0.02,VWS V14.01,2013-10-14 21:05:00,
2013-10-14 17:06:00,67.6,64.9,30.06,NNE,14,0.0,8.0,91,0.00,,---,0.02,VWS V14.01,2013-10-14 21:06:00,
2013-10-14 17:07:00,67.6,64.9,30.06,NE,35,3.0,8.0,91,0.00,,---,0.02,VWS V14.01,2013-10-14 21:07:00,
2013-10-14 17:08:00,67.6,64.9,30.06,NE,34,0.0,8.0,91,0.00,,---,0.02,VWS V14.01,2013-10-14 21:08:00,
2013-10-14 17:09:00,67.6,64.9,30.06,ENE,66,0.0,8.0,91,0.00,,---,0.02,VWS V14.01,2013-10-14 21:09:00,
2013-10-14 17:10:00,67.6,64.9,30.06,ENE,65,0.0,8.0,91,0.00,,---,0.02,VWS V14.01,2013-10-14 21:10:00,
2013-10-14 17:11:00,67.6,64.9,30.06,ENE,59,2.0,6.0,91,0.00,,---,0.02,VWS V14.01,2013-10-14 21:11:00,
2013-10-14 17:12:00,67.6,64.9,30.06,NNE,24,2.0,6.0,91,0.00,,---,0.02,VWS V14.01,2013-10-14 21:12:00,
2013-10-14 17:13:00,67.6,64.9,30.06,ENE,71,4.0,6.0,91,0.00,,---,0.02,VWS V14.01,2013-10-14 21:13:00,
2013-10-14 17:14:00,67.6,64.9,30.06,NE,56,1.0,6.0,91,0.00,,---,0.02,VWS V14.01,2013-10-14 21:14:00,
2013-10-14 17:15:00,67.6,64.9,30.06,NE,56,0.0,6.0,91,0.00,,---,0.02,VWS V14.01,2013-10-14 21:15:00,
2013-10-14 17:16:00,67.6,64.9,30.06,NE,56,0.0,6.0,91,0.00,,---,0.02,VWS V14.01,2013-10-14 21:16:00,
2013-10-14 17:17:00,67.6,64.9,30.06,NE,56,0.0,6.0,91,0.00,,---,0.02,VWS V14.01,2013-10-14 21:17:00,
2013-10-14 17:18:00,67.6,64.9,30.06,NE,52,2.0,7.0,91,0.00,,---,0.02,VWS V14.01,2013-10-14 21:18:00,
2013-10-14 17:19:00,67.6,64.9,30.06,North,7,4.0,7.0,91,0.00,,---,0.02,VWS V14.01,2013-10-14 21:19:00,
2013-10-14 17:20:00,67.6,64.9,30.06,NNE,23,0.0,7.0,91,0.00,,---,0.02,VWS V14.01,2013-10-14 21:20:00,
2013-10-14 17:21:00,67.6,64.9,30.06,North,0,2.0,6.0,91,0.00,,---,0.02,VWS V14.01,2013-10-14 21:21:00,
2013-10-14 17:22:00,67.6,64.9,30.06,ENE,61,2.0,6.0,91,0.00,,---,0.02,VWS V14.01,2013-10-14 21:22:00,
2013-10-14 17:23:00,67.6,64.9,30.06,NNE,20,2.0,6.0,91,0.00,,---,0.02,VWS V14.01,2013-10-14 21:23:00,
2013-10-14 17:24:00,67.6,64.9,30.06,NNE,20,4.0,9.0,91,0.00,,---,0.02,VWS V14.01,2013-10-14 21:24:00,
2013-10-14 17:25:00,67.6,64.9,30.06,NNE,27,4.0,9.0,91,0.00,,---,0.02,VWS V14.01,2013-10-14 21:25:00,
2013-10-14 17:26:00,67.6,64.9,30.06,North,349,0.0,9.0,91,0.00,,---,0.02,VWS V14.01,2013-10-14 21:26:00,
2013-10-14 17:27:00,67.6,64.6,30.06,NE,35,0.0,9.0,90,0.00,,---,0.02,VWS V14.01,2013-10-14 21:27:00,
2013-10-14 17:28:00,67.6,64.9,30.06,NE,35,1.0,9.0,91,0.00,,---,0.02,VWS V14.01,2013-10-14 21:28:00,
2013-10-14 17:29:00,67.6,64.9,30.06,NE,56,0.0,9.0,91,0.00,,---,0.02,VWS V14.01,2013-10-14 21:29:00,
2013-10-14 17:30:00,67.6,64.9,30.06,NE,48,0.0,9.0,91,0.00,,---,0.02,VWS V14.01,2013-10-14 21:30:00,
2013-10-14 17:31:00,67.6,64.9,30.06,NNE,28,2.0,3.0,91,0.00,,---,0.02,VWS V14.01,2013-10-14 21:31:00,
2013-10-14 17:32:00,67.6,64.9,30.06,NNE,28,0.0,3.0,91,0.00,,---,0.02,VWS V14.01,2013-10-14 21:32:00,
2013-10-14 17:33:00,67.6,64.9,30.06,NNE,32,0.0,3.0,91,0.00,,---,0.02,VWS V14.01,2013-10-14 21:33:00,
2013-10-14 17:34:00,67.6,64.9,30.06,NNE,32,0.0,3.0,91,0.00,,---,0.02,VWS V14.01,2013-10-14 21:34:00,
2013-10-14 17:35:00,67.6,64.9,30.06,NNE,24,1.0,3.0,91,0.00,,---,0.02,VWS V14.01,2013-10-14 21:35:00,
2013-10-14 17:36:00,67.6,64.9,30.06,NE,40,3.0,5.0,91,0.00,,---,0.02,VWS V14.01,2013-10-14 21:36:00,
2013-10-14 17:37:00,67.6,64.9,30.06,North,8,3.0,7.0,91,0.00,,---,0.02,VWS V14.01,2013-10-14 21:37:00,
2013-10-14 17:38:00,67.6,64.9,30.06,ENE,78,2.0,7.0,91,0.00,,---,0.02,VWS V14.01,2013-10-14 21:38:00,
2013-10-14 17:39:00,67.6,64.9,30.06,NE,42,1.0,7.0,91,0.00,,---,0.02,VWS V14.01,2013-10-14 21:39:00,
2013-10-14 17:40:00,67.6,64.9,30.06,NNE,20,2.0,7.0,91,0.00,,---,0.02,VWS V14.01,2013-10-14 21:40:00,
2013-10-14 17:41:00,67.6,64.6,30.06,NNE,16,0.0,2.0,90,0.00,,---,0.02,VWS V14.01,2013-10-14 21:41:00,
2013-10-14 17:42:00,67.6,64.6,30.06,NE,41,2.0,2.0,90,0.00,,---,0.02,VWS V14.01,2013-10-14 21:42:00,
2013-10-14 17:43:00,67.6,64.6,30.06,NNE,23,1.0,6.0,90,0.00,,---,0.02,VWS V14.01,2013-10-14 21:43:00,
2013-10-14 17:44:00,67.6,64.6,30.06,NNE,23,0.0,6.0,90,0.00,,---,0.02,VWS V14.01,2013-10-14 21:44:00,
2013-10-14 17:45:00,67.4,64.7,30.06,NNE,23,0.0,6.0,91,0.00,,---,0.02,VWS V14.01,2013-10-14 21:45:00,
2013-10-14 17:46:00,67.4,64.4,30.06,NNE,23,0.0,6.0,90,0.00,,---,0.02,VWS V14.01,2013-10-14 21:46:00,
2013-10-14 17:47:00,67.4,64.4,30.06,NNE,23,1.0,6.0,90,0.00,,---,0.02,VWS V14.01,2013-10-14 21:47:00,
2013-10-14 17:48:00,67.4,64.4,30.06,NNE,30,0.0,6.0,90,0.00,,---,0.02,VWS V14.01,2013-10-14 21:48:00,
2013-10-14 17:49:00,67.4,64.4,30.06,North,8,3.0,6.0,90,0.00,,---,0.02,VWS V14.01,2013-10-14 21:49:00,
2013-10-14 17:50:00,67.4,64.4,30.06,NNE,27,0.0,6.0,90,0.00,,---,0.02,VWS V14.01,2013-10-14 21:50:00,
2013-10-14 17:51:00,67.4,64.4,30.06,NE,56,3.0,5.0,90,0.00,,---,0.02,VWS V14.01,2013-10-14 21:51:00,
2013-10-14 17:52:00,67.4,64.4,30.06,NE,52,1.0,6.0,90,0.00,,---,0.02,VWS V14.01,2013-10-14 21:52:00,
2013-10-14 17:53:00,67.4,64.4,30.06,NE,49,0.0,6.0,90,0.00,,---,0.02,VWS V14.01,2013-10-14 21:53:00,
2013-10-14 17:54:00,67.4,64.4,30.06,North,8,2.0,6.0,90,0.00,,---,0.02,VWS V14.01,2013-10-14 21:54:00,
2013-10-14 17:55:00,67.4,64.4,30.06,NE,47,5.0,6.0,90,0.00,,---,0.02,VWS V14.01,2013-10-14 21:55:00,
2013-10-14 17:56:00,67.4,64.4,30.06,NE,49,3.0,6.0,90,0.00,,---,0.02,VWS V14.01,2013-10-14 21:56:00,
2013-10-14 17:57:00,67.4,64.4,30.06,ENE,61,5.0,6.0,90,0.00,,---,0.02,VWS V14.01,2013-10-14 21:57:00,
2013-10-14 17:58:00,67.4,64.4,30.06,NE,40,3.0,6.0,90,0.00,,---,0.02,VWS V14.01,2013-10-14 21:58:00,
2013-10-14 17:59:00,67.4,64.4,30.06,East,100,5.0,6.0,90,0.00,,---,0.02,VWS V14.01,2013-10-14 21:59:00,
2013-10-14 18:00:00,67.4,64.4,30.07,East,86,0.0,6.0,90,0.00,,---,0.02,VWS V14.01,2013-10-14 22:00:00,
2013-10-14 18:01:00,67.4,64.4,30.07,ENE,62,2.0,6.0,90,0.00,,---,0.02,VWS V14.01,2013-10-14 22:01:00,
2013-10-14 18:02:00,67.4,64.4,30.07,NE,38,0.0,6.0,90,0.00,,---,0.02,VWS V14.01,2013-10-14 22:02:00,
2013-10-14 18:03:00,67.4,64.1,30.07,NE,38,0.0,6.0,89,0.00,,---,0.02,VWS V14.01,2013-10-14 22:03:00,
2013-10-14 18:04:00,67.4,64.1,30.07,NNE,32,4.0,6.0,89,0.00,,---,0.02,VWS V14.01,2013-10-14 22:04:00,
2013-10-14 18:05:00,67.4,64.4,30.07,NNE,18,0.0,6.0,90,0.00,,---,0.02,VWS V14.01,2013-10-14 22:05:00,
2013-10-14 18:06:00,67.4,64.1,30.07,NNE,18,0.0,6.0,89,0.00,,---,0.02,VWS V14.01,2013-10-14 22:06:00,
2013-10-14 18:07:00,67.4,64.1,30.07,ENE,71,0.0,6.0,89,0.00,,---,0.02,VWS V14.01,2013-10-14 22:07:00,
2013-10-14 18:08:00,67.4,64.4,30.07,NNE,32,1.0,6.0,90,0.00,,---,0.02,VWS V14.01,2013-10-14 22:08:00,
2013-10-14 18:09:00,67.4,64.4,30.07,NNE,32,0.0,6.0,90,0.00,,---,0.02,VWS V14.01,2013-10-14 22:09:00,
2013-10-14 18:10:00,67.4,64.4,30.07,NNE,32,0.0,6.0,90,0.00,,---,0.02,VWS V14.01,2013-10-14 22:10:00,
2013-10-14 18:11:00,67.4,64.4,30.07,NNE,32,0.0,0.0,90,0.00,,---,0.02,VWS V14.01,2013-10-14 22:11:00,
2013-10-14 18:12:00,67.4,64.4,30.07,NNE,32,0.0,0.0,90,0.00,,---,0.02,VWS V14.01,2013-10-14 22:12:00,
2013-10-14 18:13:00,67.4,64.4,30.07,NNE,14,0.0,3.0,90,0.00,,---,0.02,VWS V14.01,2013-10-14 22:13:00,
2013-10-14 18:14:00,67.4,64.4,30.07,ENE,62,0.0,3.0,90,0.00,,---,0.02,VWS V14.01,2013-10-14 22:14:00,
2013-10-14 18:15:00,67.6,64.6,30.07,East,80,1.0,3.0,90,0.00,,---,0.02,VWS V14.01,2013-10-14 22:15:00,
2013-10-14 18:16:00,67.6,64.6,30.07,East,80,0.0,3.0,90,0.00,,---,0.02,VWS V14.01,2013-10-14 22:16:00,
2013-10-14 18:17:00,67.6,64.6,30.07,NNE,32,3.0,5.0,90,0.00,,---,0.02,VWS V14.01,2013-10-14 22:17:00,
2013-10-14 18:18:00,67.6,64.6,30.07,NE,38,2.0,5.0,90,0.00,,---,0.02,VWS V14.01,2013-10-14 22:18:00,
2013-10-14 18:19:00,67.6,64.2,30.07,NNE,27,3.0,6.0,89,0.00,,---,0.02,VWS V14.01,2013-10-14 22:19:00,
2013-10-14 18:20:00,67.6,64.6,30.07,NNE,13,0.0,6.0,90,0.00,,---,0.02,VWS V14.01,2013-10-14 22:20:00,
2013-10-14 18:21:00,67.6,64.2,30.07,NNE,20,1.0,1.0,89,0.00,,---,0.02,VWS V14.01,2013-10-14 22:21:00,
2013-10-14 18:22:00,67.6,64.2,30.07,NNE,23,3.0,6.0,89,0.00,,---,0.02,VWS V14.01,2013-10-14 22:22:00,
2013-10-14 18:23:00,67.8,64.8,30.07,NE,52,5.0,7.0,90,0.00,,---,0.02,VWS V14.01,2013-10-14 22:23:00,
2013-10-14 18:24:00,67.9,65.2,30.07,ENE,59,0.0,7.0,91,0.00,,---,0.02,VWS V14.01,2013-10-14 22:24:00,
2013-10-14 18:25:00,68.3,65.6,30.07,ENE,68,1.0,9.0,91,0.00,,---,0.02,VWS V14.01,2013-10-14 22:25:00,
2013-10-14 18:26:00,68.4,65.7,30.07,NNE,28,5.0,9.0,91,0.00,,---,0.02,VWS V14.01,2013-10-14 22:26:00,
2013-10-14 18:27:00,68.6,63.9,30.07,NNE,31,2.0,9.0,85,0.00,,---,0.02,VWS V14.01,2013-10-14 22:27:00,
2013-10-14 18:28:00,68.6,63.9,30.07,NE,37,3.0,9.0,85,0.00,,---,0.02,VWS V14.01,2013-10-14 22:28:00,
2013-10-14 18:29:00,68.6,64.6,30.07,East,83,5.0,9.0,87,0.00,,---,0.02,VWS V14.01,2013-10-14 22:29:00,
2013-10-14 18:30:00,68.6,63.9,30.07,North,0,3.0,9.0,85,0.00,,---,0.02,VWS V14.01,2013-10-14 22:30:00,
2013-10-14 18:31:00,68.6,63.9,30.07,NE,42,3.0,7.0,85,0.00,,---,0.02,VWS V14.01,2013-10-14 22:31:00,
2013-10-14 18:32:00,68.6,63.9,30.07,NNE,21,5.0,7.0,85,0.00,,---,0.02,VWS V14.01,2013-10-14 22:32:00,
2013-10-14 18:33:00,68.6,63.9,30.07,NE,48,1.0,7.0,85,0.00,,---,0.02,VWS V14.01,2013-10-14 22:33:00,
2013-10-14 18:34:00,68.8,64.1,30.07,NE,51,5.0,7.0,85,0.00,,---,0.02,VWS V14.01,2013-10-14 22:34:00,
2013-10-14 18:35:00,68.8,64.1,30.07,NNE,27,0.0,7.0,85,0.00,,---,0.02,VWS V14.01,2013-10-14 22:35:00,
2013-10-14 18:36:00,68.8,64.1,30.07,NNE,27,0.0,7.0,85,0.00,,---,0.02,VWS V14.01,2013-10-14 22:36:00,
2013-10-14 18:37:00,68.8,64.8,30.07,NNE,25,3.0,7.0,87,0.00,,---,0.02,VWS V14.01,2013-10-14 22:37:00,
2013-10-14 18:38:00,68.8,64.1,30.07,NNE,16,4.0,7.0,85,0.00,,---,0.02,VWS V14.01,2013-10-14 22:38:00,
2013-10-14 18:39:00,68.8,64.1,30.07,NE,54,2.0,7.0,85,0.00,,---,0.02,VWS V14.01,2013-10-14 22:39:00,
2013-10-14 18:40:00,68.8,64.1,30.07,North,11,6.0,7.0,85,0.00,,---,0.02,VWS V14.01,2013-10-14 22:40:00,
2013-10-14 18:41:00,68.8,64.1,30.07,NNE,13,4.0,7.0,85,0.00,,---,0.02,VWS V14.01,2013-10-14 22:41:00,
2013-10-14 18:42:00,68.8,64.1,30.07,North,357,0.0,7.0,85,0.00,,---,0.02,VWS V14.01,2013-10-14 22:42:00,
2013-10-14 18:43:00,68.8,64.1,30.07,NE,34,0.0,7.0,85,0.00,,---,0.02,VWS V14.01,2013-10-14 22:43:00,
2013-10-14 18:44:00,68.8,64.1,30.07,ESE,103,2.0,7.0,85,0.00,,---,0.02,VWS V14.01,2013-10-14 22:44:00,
2013-10-14 18:45:00,68.8,64.1,30.07,NNE,20,4.0,7.0,85,0.00,,---,0.02,VWS V14.01,2013-10-14 22:45:00,
2013-10-14 18:46:00,68.6,63.9,30.07,ENE,66,2.0,7.0,85,0.00,,---,0.02,VWS V14.01,2013-10-14 22:46:00,
2013-10-14 18:47:00,68.6,63.9,30.07,NE,35,1.0,7.0,85,0.00,,---,0.02,VWS V14.01,2013-10-14 22:47:00,
2013-10-14 18:48:00,68.4,63.7,30.07,NE,54,3.0,7.0,85,0.00,,---,0.02,VWS V14.01,2013-10-14 22:48:00,
2013-10-14 18:49:00,68.4,63.7,30.07,NE,42,2.0,7.0,85,0.00,,---,0.02,VWS V14.01,2013-10-14 22:49:00,
2013-10-14 18:50:00,68.4,63.7,30.07,NNE,16,3.0,7.0,85,0.00,,---,0.02,VWS V14.01,2013-10-14 22:50:00,
2013-10-14 18:51:00,68.4,63.7,30.07,NE,44,0.0,3.0,85,0.00,,---,0.02,VWS V14.01,2013-10-14 22:51:00,
2013-10-14 18:52:00,68.3,63.6,30.07,NE,44,0.0,3.0,85,0.00,,---,0.02,VWS V14.01,2013-10-14 22:52:00,
2013-10-14 18:53:00,68.3,63.6,30.07,NE,44,1.0,3.0,85,0.00,,---,0.02,VWS V14.01,2013-10-14 22:53:00,
2013-10-14 18:54:00,68.3,63.6,30.07,NE,44,0.0,3.0,85,0.00,,---,0.02,VWS V14.01,2013-10-14 22:54:00,
2013-10-14 18:55:00,68.1,63.8,30.07,East,88,3.0,5.0,86,0.00,,---,0.02,VWS V14.01,2013-10-14 22:55:00,
2013-10-14 18:56:00,68.1,63.8,30.07,NE,37,0.0,5.0,86,0.00,,---,0.02,VWS V14.01,2013-10-14 22:56:00,
2013-10-14 18:57:00,68.1,63.8,30.07,ENE,64,2.0,5.0,86,0.00,,---,0.02,VWS V14.01,2013-10-14 22:57:00,
2013-10-14 18:58:00,67.9,63.6,30.07,ENE,64,0.0,5.0,86,0.00,,---,0.02,VWS V14.01,2013-10-14 22:58:00,
2013-10-14 18:59:00,67.9,63.9,30.07,ENE,59,0.0,5.0,87,0.00,,---,0.02,VWS V14.01,2013-10-14 22:59:00,
2013-10-14 19:00:00,67.8,63.8,30.07,East,82,2.0,6.0,87,0.00,,---,0.02,VWS V14.01,2013-10-14 23:00:00,
2013-10-14 19:01:00,67.8,63.8,30.07,NE,48,0.0,2.0,87,0.00,,---,0.02,VWS V14.01,2013-10-14 23:01:00,
2013-10-14 19:02:00,67.6,63.6,30.07,NE,51,0.0,2.0,87,0.00,,---,0.02,VWS V14.01,2013-10-14 23:02:00,
2013-10-14 19:03:00,67.6,63.6,30.07,NE,38,3.0,5.0,87,0.00,,---,0.02,VWS V14.01,2013-10-14 23:03:00,
2013-10-14 19:04:00,67.6,63.6,30.07,NNE,32,2.0,8.0,87,0.00,,---,0.02,VWS V14.01,2013-10-14 23:04:00,
2013-10-14 19:05:00,67.4,63.4,30.07,NNE,32,0.0,8.0,87,0.00,,---,0.02,VWS V14.01,2013-10-14 23:05:00,
2013-10-14 19:06:00,67.4,63.4,30.07,NNE,32,0.0,8.0,87,0.00,,---,0.02,VWS V14.01,2013-10-14 23:06:00,
2013-10-14 19:07:00,67.4,63.4,30.07,NNE,32,0.0,8.0,87,0.00,,---,0.02,VWS V14.01,2013-10-14 23:07:00,
2013-10-14 19:08:00,67.3,63.6,30.07,NNE,32,0.0,8.0,88,0.00,,---,0.02,VWS V14.01,2013-10-14 23:08:00,
2013-10-14 19:09:00,67.3,63.6,30.07,NNE,32,0.0,8.0,88,0.00,,---,0.02,VWS V14.01,2013-10-14 23:09:00,
2013-10-14 19:10:00,67.3,63.6,30.07,NE,35,0.0,8.0,88,0.00,,---,0.02,VWS V14.01,2013-10-14 23:10:00,
2013-10-14 19:11:00,67.1,63.4,30.07,NE,37,0.0,1.0,88,0.00,,---,0.02,VWS V14.01,2013-10-14 23:11:00,
2013-10-14 19:12:00,67.1,63.4,30.07,NE,37,0.0,1.0,88,0.00,,---,0.02,VWS V14.01,2013-10-14 23:12:00,
2013-10-14 19:13:00,67.1,63.4,30.07,NNE,16,1.0,3.0,88,0.00,,---,0.02,VWS V14.01,2013-10-14 23:13:00,
2013-10-14 19:14:00,67.1,63.4,30.07,NE,48,5.0,6.0,88,0.00,,---,0.02,VWS V14.01,2013-10-14 23:14:00,
2013-10-14 19:15:00,66.9,63.2,30.07,NNE,27,2.0,6.0,88,0.00,,---,0.02,VWS V14.01,2013-10-14 23:15:00,
2013-10-14 19:16:00,66.9,63.2,30.07,NNE,27,0.0,6.0,88,0.00,,---,0.02,VWS V14.01,2013-10-14 23:16:00,
2013-10-14 19:17:00,66.9,63.2,30.07,NNE,25,2.0,6.0,88,0.00,,---,0.02,VWS V14.01,2013-10-14 23:17:00,
2013-10-14 19:18:00,66.9,63.6,30.07,NNE,25,1.0,6.0,89,0.00,,---,0.02,VWS V14.01,2013-10-14 23:18:00,
2013-10-14 19:19:00,66.8,63.1,30.07,NNE,25,0.0,6.0,88,0.00,,---,0.02,VWS V14.01,2013-10-14 23:19:00,
2013-10-14 19:20:00,66.8,63.5,30.07,NE,35,3.0,6.0,89,0.00,,---,0.02,VWS V14.01,2013-10-14 23:20:00,
2013-10-14 19:21:00,66.8,63.1,30.07,NNE,25,7.0,7.0,88,0.00,,---,0.02,VWS V14.01,2013-10-14 23:21:00,
2013-10-14 19:22:00,66.8,63.1,30.07,East,92,2.0,7.0,88,0.00,,---,0.02,VWS V14.01,2013-10-14 23:22:00,
2013-10-14 19:23:00,66.6,62.9,30.07,East,80,6.0,7.0,88,0.00,,---,0.02,VWS V14.01,2013-10-14 23:23:00,
2013-10-14 19:24:00,66.6,63.3,30.07,North,8,5.0,8.0,89,0.00,,---,0.02,VWS V14.01,2013-10-14 23:24:00,
2013-10-14 19:25:00,66.6,62.9,30.07,North,7,3.0,8.0,88,0.00,,---,0.02,VWS V14.01,2013-10-14 23:25:00,
2013-10-14 19:26:00,66.6,62.9,30.07,ENE,64,5.0,8.0,88,0.00,,---,0.02,VWS V14.01,2013-10-14 23:26:00,
2013-10-14 19:27:00,66.4,62.7,30.07,ENE,65,0.0,8.0,88,0.00,,---,0.02,VWS V14.01,2013-10-14 23:27:00,
2013-10-14 19:28:00,66.4,63.1,30.07,ENE,65,0.0,8.0,89,0.00,,---,0.02,VWS V14.01,2013-10-14 23:28:00,
2013-10-14 19:29:00,66.4,63.1,30.07,NNE,25,5.0,8.0,89,0.00,,---,0.02,VWS V14.01,2013-10-14 23:29:00,
2013-10-14 19:30:00,66.4,63.1,30.08,NNE,20,0.0,8.0,89,0.00,,---,0.02,VWS V14.01,2013-10-14 23:30:00,
2013-10-14 19:31:00,66.4,63.1,30.08,NE,41,2.0,2.0,89,0.00,,---,0.02,VWS V14.01,2013-10-14 23:31:00,
2013-10-14 19:32:00,66.4,63.1,30.08,North,10,2.0,6.0,89,0.00,,---,0.02,VWS V14.01,2013-10-14 23:32:00,
2013-10-14 19:33:00,66.3,63.0,30.08,ENE,66,0.0,6.0,89,0.00,,---,0.02,VWS V14.01,2013-10-14 23:33:00,
2013-10-14 19:34:00,66.3,63.0,30.08,NNE,24,2.0,6.0,89,0.00,,---,0.02,VWS V14.01,2013-10-14 23:34:00,
2013-10-14 19:35:00,66.3,63.0,30.08,North,6,1.0,6.0,89,0.00,,---,0.02,VWS V14.01,2013-10-14 23:35:00,
2013-10-14 19:36:00,66.3,63.0,30.08,NNE,18,2.0,6.0,89,0.00,,---,0.02,VWS V14.01,2013-10-14 23:36:00,
2013-10-14 19:37:00,66.3,63.0,30.08,NNE,27,0.0,6.0,89,0.00,,---,0.02,VWS V14.01,2013-10-14 23:37:00,
2013-10-14 19:38:00,66.1,62.8,30.08,ENE,64,2.0,7.0,89,0.00,,---,0.02,VWS V14.01,2013-10-14 23:38:00,
2013-10-14 19:39:00,66.1,62.5,30.08,NNE,23,1.0,7.0,88,0.00,,---,0.02,VWS V14.01,2013-10-14 23:39:00,
2013-10-14 19:40:00,66.1,62.8,30.08,NNE,32,2.0,7.0,89,0.00,,---,0.02,VWS V14.01,2013-10-14 23:40:00,
2013-10-14 19:41:00,66.1,62.8,30.08,NNE,32,5.0,6.0,89,0.00,,---,0.02,VWS V14.01,2013-10-14 23:41:00,
2013-10-14 19:42:00,66.1,62.5,30.08,ENE,66,4.0,6.0,88,0.00,,---,0.02,VWS V14.01,2013-10-14 23:42:00,
2013-10-14 19:43:00,66.0,62.7,30.08,NE,55,6.0,7.0,89,0.00,,---,0.02,VWS V14.01,2013-10-14 23:43:00,
2013-10-14 19:44:00,66.0,62.7,30.08,East,82,2.0,7.0,89,0.00,,---,0.02,VWS V14.01,2013-10-14 23:44:00,
2013-10-14 19:45:00,66.0,62.7,30.08,NNE,32,3.0,7.0,89,0.00,,---,0.02,VWS V14.01,2013-10-14 23:45:00,
2013-10-14 19:46:00,66.0,62.7,30.08,NNE,31,0.0,7.0,89,0.00,,---,0.02,VWS V14.01,2013-10-14 23:46:00,
2013-10-14 19:47:00,66.0,62.7,30.08,NNE,28,1.0,7.0,89,0.00,,---,0.02,VWS V14.01,2013-10-14 23:47:00,
2013-10-14 19:48:00,66.0,62.7,30.08,North,11,0.0,7.0,89,0.00,,---,0.02,VWS V14.01,2013-10-14 23:48:00,
2013-10-14 19:49:00,65.8,62.5,30.08,North,4,3.0,7.0,89,0.00,,---,0.02,VWS V14.01,2013-10-14 23:49:00,
2013-10-14 19:50:00,65.8,62.5,30.08,North,4,0.0,7.0,89,0.00,,---,0.02,VWS V14.01,2013-10-14 23:50:00,
2013-10-14 19:51:00,65.8,62.5,30.08,North,11,2.0,3.0,89,0.00,,---,0.02,VWS V14.01,2013-10-14 23:51:00,
2013-10-14 19:52:00,65.8,62.8,30.08,NNE,13,0.0,4.0,90,0.00,,---,0.02,VWS V14.01,2013-10-14 23:52:00,
2013-10-14 19:53:00,65.8,62.5,30.08,NNE,30,0.0,5.0,89,0.00,,---,0.02,VWS V14.01,2013-10-14 23:53:00,
2013-10-14 19:54:00,65.8,62.5,30.08,East,86,2.0,6.0,89,0.00,,---,0.02,VWS V14.01,2013-10-14 23:54:00,
2013-10-14 19:55:00,65.8,62.5,30.08,NNE,25,5.0,6.0,89,0.00,,---,0.02,VWS V14.01,2013-10-14 23:55:00,
2013-10-14 19:56:00,65.8,62.5,30.08,North,8,0.0,6.0,89,0.00,,---,0.02,VWS V14.01,2013-10-14 23:56:00,
2013-10-14 19:57:00,65.8,62.5,30.08,North,0,0.0,6.0,89,0.00,,---,0.02,VWS V14.01,2013-10-14 23:57:00,
2013-10-14 19:58:00,65.8,62.5,30.08,North,3,0.0,6.0,89,0.00,,---,0.02,VWS V14.01,2013-10-14 23:58:00,
2013-10-14 19:59:00,65.8,62.8,30.08,North,7,2.0,6.0,90,0.00,,---,0.02,VWS V14.01,2013-10-14 23:59:00,
2013-10-14 20:00:00,65.6,62.6,30.08,ENE,61,0.0,6.0,90,0.00,,---,0.02,VWS V14.01,2013-10-15 00:00:00,
2013-10-14 20:01:00,65.6,62.6,30.08,ESE,106,2.0,3.0,90,0.00,,---,0.02,VWS V14.01,2013-10-15 00:01:00,
2013-10-14 20:02:00,65.6,62.6,30.08,East,79,6.0,6.0,90,0.00,,---,0.02,VWS V14.01,2013-10-15 00:02:00,
2013-10-14 20:03:00,65.6,62.6,30.08,NNE,28,1.0,6.0,90,0.00,,---,0.02,VWS V14.01,2013-10-15 00:03:00,
2013-10-14 20:04:00,65.6,62.6,30.08,NNE,28,0.0,6.0,90,0.00,,---,0.02,VWS V14.01,2013-10-15 00:04:00,
2013-10-14 20:05:00,65.6,62.3,30.08,NNE,27,1.0,6.0,89,0.00,,---,0.02,VWS V14.01,2013-10-15 00:05:00,
2013-10-14 20:06:00,65.6,62.3,30.08,NNE,24,2.0,6.0,89,0.00,,---,0.02,VWS V14.01,2013-10-15 00:06:00,
2013-10-14 20:07:00,65.6,62.3,30.08,ENE,65,0.0,6.0,89,0.00,,---,0.02,VWS V14.01,2013-10-15 00:07:00,
2013-10-14 20:08:00,65.6,62.6,30.08,ENE,65,0.0,6.0,90,0.00,,---,0.02,VWS V14.01,2013-10-15 00:08:00,
2013-10-14 20:09:00,65.5,62.5,30.08,NE,35,2.0,6.0,90,0.00,,---,0.02,VWS V14.01,2013-10-15 00:09:00,
2013-10-14 20:10:00,65.5,62.5,30.08,NE,34,3.0,6.0,90,0.00,,---,0.02,VWS V14.01,2013-10-15 00:10:00,
2013-10-14 20:11:00,65.5,62.5,30.08,NNE,16,0.0,3.0,90,0.00,,---,0.02,VWS V14.01,2013-10-15 00:11:00,
2013-10-14 20:12:00,65.5,62.5,30.08,NNE,16,0.0,3.0,90,0.00,,---,0.02,VWS V14.01,2013-10-15 00:12:00,
2013-10-14 20:13:00,65.5,62.5,30.08,North,7,5.0,7.0,90,0.00,,---,0.02,VWS V14.01,2013-10-15 00:13:00,
2013-10-14 20:14:00,65.5,62.5,30.08,NE,38,6.0,7.0,90,0.00,,---,0.02,VWS V14.01,2013-10-15 00:14:00,
2013-10-14 20:15:00,65.5,62.5,30.08,NNE,17,1.0,7.0,90,0.00,,---,0.02,VWS V14.01,2013-10-15 00:15:00,
2013-10-14 20:16:00,65.5,62.5,30.08,NNE,24,3.0,7.0,90,0.00,,---,0.02,VWS V14.01,2013-10-15 00:16:00,
2013-10-14 20:17:00,65.5,62.5,30.08,NE,55,0.0,7.0,90,0.00,,---,0.02,VWS V14.01,2013-10-15 00:17:00,
2013-10-14 20:18:00,65.5,62.5,30.08,NE,55,0.0,7.0,90,0.00,,---,0.02,VWS V14.01,2013-10-15 00:18:00,
2013-10-14 20:19:00,65.5,62.5,30.08,NE,55,0.0,7.0,90,0.00,,---,0.02,VWS V14.01,2013-10-15 00:19:00,
2013-10-14 20:20:00,65.5,62.5,30.08,NE,55,0.0,7.0,90,0.00,,---,0.02,VWS V14.01,2013-10-15 00:20:00,
2013-10-14 20:21:00,65.5,62.5,30.08,NE,55,0.0,0.0,90,0.00,,---,0.02,VWS V14.01,2013-10-15 00:21:00,
2013-10-14 20:22:00,65.5,62.5,30.08,NE,55,0.0,0.0,90,0.00,,---,0.02,VWS V14.01,2013-10-15 00:22:00,
2013-10-14 20:23:00,65.3,62.3,30.08,NE,55,0.0,0.0,90,0.00,,---,0.02,VWS V14.01,2013-10-15 00:23:00,
2013-10-14 20:24:00,65.3,62.3,30.08,NE,45,2.0,2.0,90,0.00,,---,0.02,VWS V14.01,2013-10-15 00:24:00,
2013-10-14 20:25:00,65.3,62.3,30.08,NNE,18,0.0,2.0,90,0.00,,---,0.02,VWS V14.01,2013-10-15 00:25:00,
2013-10-14 20:26:00,65.3,62.3,30.08,NNE,18,0.0,2.0,90,0.00,,---,0.02,VWS V14.01,2013-10-15 00:26:00,
2013-10-14 20:27:00,65.3,62.3,30.08,NNE,31,0.0,2.0,90,0.00,,---,0.02,VWS V14.01,2013-10-15 00:27:00,
2013-10-14 20:28:00,65.3,62.3,30.08,NNE,30,2.0,2.0,90,0.00,,---,0.02,VWS V14.01,2013-10-15 00:28:00,
2013-10-14 20:29:00,65.3,62.3,30.08,North,356,2.0,2.0,90,0.00,,---,0.02,VWS V14.01,2013-10-15 00:29:00,
2013-10-14 20:30:00,65.3,62.3,30.08,North,7,0.0,2.0,90,0.00,,---,0.02,VWS V14.01,2013-10-15 00:30:00,
2013-10-14 20:31:00,65.3,62.3,30.08,NNE,13,0.0,0.0,90,0.00,,---,0.02,VWS V14.01,2013-10-15 00:31:00,
2013-10-14 20:32:00,65.3,62.6,30.08,North,4,0.0,4.0,91,0.00,,---,0.02,VWS V14.01,2013-10-15 00:32:00,
2013-10-14 20:33:00,65.3,62.6,30.08,North,4,0.0,4.0,91,0.00,,---,0.02,VWS V14.01,2013-10-15 00:33:00,
2013-10-14 20:34:00,65.3,62.3,30.08,North,4,0.0,4.0,90,0.00,,---,0.02,VWS V14.01,2013-10-15 00:34:00,
2013-10-14 20:35:00,65.3,62.3,30.08,NNE,32,1.0,4.0,90,0.00,,---,0.02,VWS V14.01,2013-10-15 00:35:00,
2013-10-14 20:36:00,65.3,62.6,30.08,NE,47,5.0,5.0,91,0.00,,---,0.02,VWS V14.01,2013-10-15 00:36:00,
2013-10-14 20:37:00,65.2,62.5,30.08,North,11,4.0,8.0,91,0.00,,---,0.02,VWS V14.01,2013-10-15 00:37:00,
2013-10-14 20:38:00,65.2,62.2,30.08,NE,38,0.0,8.0,90,0.00,,---,0.02,VWS V14.01,2013-10-15 00:38:00,
2013-10-14 20:39:00,65.2,62.2,30.08,NNE,28,2.0,8.0,90,0.00,,---,0.02,VWS V14.01,2013-10-15 00:39:00,
2013-10-14 20:40:00,65.2,62.2,30.08,NNE,28,0.0,8.0,90,0.00,,---,0.02,VWS V14.01,2013-10-15 00:40:00,
2013-10-14 20:41:00,65.2,62.5,30.08,NNE,28,1.0,1.0,91,0.00,,---,0.02,VWS V14.01,2013-10-15 00:41:00,
2013-10-14 20:42:00,65.2,62.2,30.08,East,93,2.0,4.0,90,0.00,,---,0.02,VWS V14.01,2013-10-15 00:42:00,
2013-10-14 20:43:00,65.2,62.2,30.08,ENE,59,0.0,4.0,90,0.00,,---,0.02,VWS V14.01,2013-10-15 00:43:00,
2013-10-14 20:44:00,65.2,62.5,30.08,NE,38,0.0,4.0,91,0.00,,---,0.02,VWS V14.01,2013-10-15 00:44:00,
2013-10-14 20:45:00,65.2,62.5,30.08,NNE,21,2.0,5.0,91,0.00,,---,0.02,VWS V14.01,2013-10-15 00:45:00,
2013-10-14 20:46:00,65.2,62.5,30.08,NE,45,3.0,5.0,91,0.00,,---,0.02,VWS V14.01,2013-10-15 00:46:00,
2013-10-14 20:47:00,65.2,62.5,30.08,NE,42,0.0,5.0,91,0.00,,---,0.02,VWS V14.01,2013-10-15 00:47:00,
2013-10-14 20:48:00,65.0,62.3,30.08,NE,41,0.0,5.0,91,0.00,,---,0.02,VWS V14.01,2013-10-15 00:48:00,
2013-10-14 20:49:00,65.0,62.3,30.08,NNE,31,0.0,5.0,91,0.00,,---,0.02,VWS V14.01,2013-10-15 00:49:00,
2013-10-14 20:50:00,65.0,62.3,30.08,NNE,24,8.0,8.0,91,0.00,,---,0.02,VWS V14.01,2013-10-15 00:50:00,
2013-10-14 20:51:00,65.0,62.3,30.08,NNE,21,1.0,8.0,91,0.00,,---,0.02,VWS V14.01,2013-10-15 00:51:00,
2013-10-14 20:52:00,65.0,62.3,30.08,NNE,32,0.0,8.0,91,0.00,,---,0.02,VWS V14.01,2013-10-15 00:52:00,
2013-10-14 20:53:00,65.0,62.3,30.08,NNE,32,0.0,8.0,91,0.00,,---,0.02,VWS V14.01,2013-10-15 00:53:00,
2013-10-14 20:54:00,65.0,62.3,30.08,NNE,32,0.0,8.0,91,0.00,,---,0.02,VWS V14.01,2013-10-15 00:54:00,
2013-10-14 20:55:00,65.0,62.3,30.08,NNE,32,0.0,8.0,91,0.00,,---,0.02,VWS V14.01,2013-10-15 00:55:00,
2013-10-14 20:56:00,65.0,62.3,30.08,NNE,21,2.0,8.0,91,0.00,,---,0.02,VWS V14.01,2013-10-15 00:56:00,
2013-10-14 20:57:00,65.0,62.3,30.08,NNE,21,0.0,8.0,91,0.00,,---,0.02,VWS V14.01,2013-10-15 00:57:00,
2013-10-14 20:58:00,65.0,62.3,30.08,NE,38,2.0,8.0,91,0.00,,---,0.02,VWS V14.01,2013-10-15 00:58:00,
2013-10-14 20:59:00,65.0,62.3,30.08,NE,38,0.0,8.0,91,0.00,,---,0.02,VWS V14.01,2013-10-15 00:59:00,
2013-10-14 21:00:00,65.0,62.3,30.09,NE,38,0.0,8.0,91,0.00,,---,0.02,VWS V14.01,2013-10-15 01:00:00,
2013-10-14 21:01:00,65.0,62.3,30.09,NE,38,0.0,0.0,91,0.00,,---,0.02,VWS V14.01,2013-10-15 01:01:00,
2013-10-14 21:02:00,65.0,62.3,30.09,NE,38,0.0,0.0,91,0.00,,---,0.02,VWS V14.01,2013-10-15 01:02:00,
2013-10-14 21:03:00,65.0,62.6,30.09,NE,38,0.0,0.0,92,0.00,,---,0.02,VWS V14.01,2013-10-15 01:03:00,
2013-10-14 21:04:00,65.0,62.6,30.09,NE,38,0.0,0.0,92,0.00,,---,0.02,VWS V14.01,2013-10-15 01:04:00,
2013-10-14 21:05:00,65.0,62.6,30.09,NE,38,0.0,0.0,92,0.00,,---,0.02,VWS V14.01,2013-10-15 01:05:00,
2013-10-14 21:06:00,64.8,62.4,30.09,NE,56,0.0,0.0,92,0.00,,---,0.02,VWS V14.01,2013-10-15 01:06:00,
2013-10-14 21:07:00,64.8,62.4,30.09,NE,56,0.0,0.0,92,0.00,,---,0.02,VWS V14.01,2013-10-15 01:07:00,
2013-10-14 21:08:00,64.8,62.4,30.09,NE,56,0.0,0.0,92,0.00,,---,0.02,VWS V14.01,2013-10-15 01:08:00,
2013-10-14 21:09:00,64.8,62.4,30.09,NE,56,0.0,0.0,92,0.00,,---,0.02,VWS V14.01,2013-10-15 01:09:00,
2013-10-14 21:10:00,64.8,62.4,30.09,NE,54,0.0,0.0,92,0.00,,---,0.02,VWS V14.01,2013-10-15 01:10:00,
2013-10-14 21:11:00,64.8,62.4,30.09,NE,52,0.0,0.0,92,0.00,,---,0.02,VWS V14.01,2013-10-15 01:11:00,
2013-10-14 21:12:00,64.8,62.4,30.09,ENE,69,7.0,7.0,92,0.00,,---,0.02,VWS V14.01,2013-10-15 01:12:00,
2013-10-14 21:13:00,64.8,62.4,30.09,ENE,62,0.0,7.0,92,0.00,,---,0.02,VWS V14.01,2013-10-15 01:13:00,
2013-10-14 21:14:00,64.8,62.4,30.09,NE,40,3.0,7.0,92,0.00,,---,0.02,VWS V14.01,2013-10-15 01:14:00,
2013-10-14 21:15:00,64.8,62.1,30.09,NE,37,0.0,7.0,91,0.00,,---,0.02,VWS V14.01,2013-10-15 01:15:00,
2013-10-14 21:16:00,64.8,62.1,30.09,NE,55,1.0,7.0,91,0.00,,---,0.02,VWS V14.01,2013-10-15 01:16:00,
2013-10-14 21:17:00,64.8,62.4,30.09,NNE,23,6.0,7.0,92,0.00,,---,0.02,VWS V14.01,2013-10-15 01:17:00,
2013-10-14 21:18:00,64.8,62.1,30.09,NE,37,2.0,7.0,91,0.00,,---,0.02,VWS V14.01,2013-10-15 01:18:00,
2013-10-14 21:19:00,64.7,62.3,30.09,NE,54,2.0,7.0,92,0.00,,---,0.02,VWS V14.01,2013-10-15 01:19:00,
2013-10-14 21:20:00,64.7,62.0,30.09,NE,54,0.0,7.0,91,0.00,,---,0.02,VWS V14.01,2013-10-15 01:20:00,
2013-10-14 21:21:00,64.7,62.3,30.09,NE,54,0.0,0.0,92,0.00,,---,0.02,VWS V14.01,2013-10-15 01:21:00,
2013-10-14 21:22:00,64.7,62.0,30.09,NE,54,0.0,0.0,91,0.00,,---,0.02,VWS V14.01,2013-10-15 01:22:00,
2013-10-14 21:23:00,64.7,62.0,30.09,NE,40,0.0,7.0,91,0.00,,---,0.02,VWS V14.01,2013-10-15 01:23:00,
2013-10-14 21:24:00,64.7,62.0,30.09,NE,40,0.0,7.0,91,0.00,,---,0.02,VWS V14.01,2013-10-15 01:24:00,
2013-10-14 21:25:00,64.7,62.0,30.09,NNE,23,0.0,7.0,91,0.00,,---,0.02,VWS V14.01,2013-10-15 01:25:00,
2013-10-14 21:26:00,64.7,62.3,30.09,NNE,18,0.0,7.0,92,0.00,,---,0.02,VWS V14.01,2013-10-15 01:26:00,
2013-10-14 21:27:00,64.7,62.0,30.09,ENE,59,0.0,7.0,91,0.00,,---,0.02,VWS V14.01,2013-10-15 01:27:00,
2013-10-14 21:28:00,64.7,62.3,30.09,North,0,2.0,7.0,92,0.00,,---,0.02,VWS V14.01,2013-10-15 01:28:00,
2013-10-14 21:29:00,64.7,62.3,30.09,North,4,2.0,7.0,92,0.00,,---,0.02,VWS V14.01,2013-10-15 01:29:00,
2013-10-14 21:30:00,64.7,62.3,30.09,NNE,32,3.0,7.0,92,0.00,,---,0.02,VWS V14.01,2013-10-15 01:30:00,
2013-10-14 21:31:00,64.7,62.0,30.09,North,350,0.0,3.0,91,0.00,,---,0.02,VWS V14.01,2013-10-15 01:31:00,
2013-10-14 21:32:00,64.7,62.0,30.09,NNE,30,3.0,3.0,91,0.00,,---,0.02,VWS V14.01,2013-10-15 01:32:00,
2013-10-14 21:33:00,64.7,62.0,30.09,NNE,18,0.0,3.0,91,0.00,,---,0.02,VWS V14.01,2013-10-15 01:33:00,
2013-10-14 21:34:00,64.7,62.0,30.09,NNE,18,0.0,3.0,91,0.00,,---,0.02,VWS V14.01,2013-10-15 01:34:00,
2013-10-14 21:35:00,64.7,62.0,30.09,North,3,0.0,3.0,91,0.00,,---,0.02,VWS V14.01,2013-10-15 01:35:00,
2013-10-14 21:36:00,64.7,62.0,30.09,ENE,68,0.0,7.0,91,0.00,,---,0.02,VWS V14.01,2013-10-15 01:36:00,
2013-10-14 21:37:00,64.7,62.0,30.09,ENE,68,0.0,7.0,91,0.00,,---,0.02,VWS V14.01,2013-10-15 01:37:00,
2013-10-14 21:38:00,64.7,62.0,30.09,ENE,68,0.0,7.0,91,0.00,,---,0.02,VWS V14.01,2013-10-15 01:38:00,
2013-10-14 21:39:00,64.7,62.0,30.09,NNE,23,6.0,8.0,91,0.00,,---,0.02,VWS V14.01,2013-10-15 01:39:00,
2013-10-14 21:40:00,64.7,62.3,30.09,NE,49,2.0,8.0,92,0.00,,---,0.02,VWS V14.01,2013-10-15 01:40:00,
2013-10-14 21:41:00,64.7,62.3,30.09,NNE,25,0.0,3.0,92,0.00,,---,0.02,VWS V14.01,2013-10-15 01:41:00,
2013-10-14 21:42:00,64.7,62.0,30.09,NNE,20,0.0,3.0,91,0.00,,---,0.02,VWS V14.01,2013-10-15 01:42:00,
2013-10-14 21:43:00,64.7,62.0,30.09,NNE,20,0.0,3.0,91,0.00,,---,0.02,VWS V14.01,2013-10-15 01:43:00,
2013-10-14 21:44:00,64.7,62.0,30.09,NNE,25,0.0,4.0,91,0.00,,---,0.02,VWS V14.01,2013-10-15 01:44:00,
2013-10-14 21:45:00,64.7,62.3,30.09,NE,45,0.0,4.0,92,0.00,,---,0.02,VWS V14.01,2013-10-15 01:45:00,
2013-10-14 21:46:00,64.7,62.0,30.09,NE,45,0.0,4.0,91,0.00,,---,0.02,VWS V14.01,2013-10-15 01:46:00,
2013-10-14 21:47:00,64.7,62.0,30.09,North,1,0.0,4.0,91,0.00,,---,0.02,VWS V14.01,2013-10-15 01:47:00,
2013-10-14 21:48:00,64.7,62.0,30.09,NE,44,0.0,4.0,91,0.00,,---,0.02,VWS V14.01,2013-10-15 01:48:00,
2013-10-14 21:49:00,64.7,62.3,30.09,North,10,2.0,5.0,92,0.00,,---,0.02,VWS V14.01,2013-10-15 01:49:00,
2013-10-14 21:50:00,64.7,62.3,30.09,North,10,0.0,5.0,92,0.00,,---,0.02,VWS V14.01,2013-10-15 01:50:00,
2013-10-14 21:51:00,64.7,62.0,30.09,NNE,21,1.0,3.0,91,0.00,,---,0.02,VWS V14.01,2013-10-15 01:51:00,
2013-10-14 21:52:00,64.7,62.0,30.09,NE,45,4.0,7.0,91,0.00,,---,0.02,VWS V14.01,2013-10-15 01:52:00,
2013-10-14 21:53:00,64.7,62.0,30.09,NNE,23,0.0,7.0,91,0.00,,---,0.02,VWS V14.01,2013-10-15 01:53:00,
2013-10-14 21:54:00,64.5,61.8,30.09,NNE,23,0.0,7.0,91,0.00,,---,0.02,VWS V14.01,2013-10-15 01:54:00,
2013-10-14 21:55:00,64.5,61.8,30.09,NNE,23,0.0,7.0,91,0.00,,---,0.02,VWS V14.01,2013-10-15 01:55:00,
2013-10-14 21:56:00,64.5,61.8,30.09,NE,48,3.0,7.0,91,0.00,,---,0.02,VWS V14.01,2013-10-15 01:56:00,
2013-10-14 21:57:00,64.5,62.1,30.09,NE,42,4.0,7.0,92,0.00,,---,0.02,VWS V14.01,2013-10-15 01:57:00,
2013-10-14 21:58:00,64.5,62.1,30.09,NNE,20,0.0,7.0,92,0.00,,---,0.02,VWS V14.01,2013-10-15 01:58:00,
2013-10-14 21:59:00,64.5,61.8,30.09,NNE,21,0.0,7.0,91,0.00,,---,0.02,VWS V14.01,2013-10-15 01:59:00,
2013-10-14 22:00:00,64.5,61.8,30.10,NNE,23,0.0,7.0,91,0.00,,---,0.02,VWS V14.01,2013-10-15 02:00:00,
2013-10-14 22:01:00,64.5,61.8,30.10,NE,41,0.0,0.0,91,0.00,,---,0.02,VWS V14.01,2013-10-15 02:01:00,
2013-10-14 22:02:00,64.5,61.8,30.10,NNE,28,1.0,3.0,91,0.00,,---,0.02,VWS V14.01,2013-10-15 02:02:00,
2013-10-14 22:03:00,64.5,61.8,30.10,NNE,16,0.0,3.0,91,0.00,,---,0.02,VWS V14.01,2013-10-15 02:03:00,
2013-10-14 22:04:00,64.5,61.8,30.10,NNE,16,0.0,3.0,91,0.00,,---,0.02,VWS V14.01,2013-10-15 02:04:00,
2013-10-14 22:05:00,64.5,61.8,30.10,NNE,21,0.0,3.0,91,0.00,,---,0.02,VWS V14.01,2013-10-15 02:05:00,
2013-10-14 22:06:00,64.5,61.8,30.10,NNE,32,0.0,3.0,91,0.00,,---,0.02,VWS V14.01,2013-10-15 02:06:00,
2013-10-14 22:07:00,64.5,62.1,30.10,NNE,28,0.0,3.0,92,0.00,,---,0.02,VWS V14.01,2013-10-15 02:07:00,
2013-10-14 22:08:00,64.5,62.1,30.10,NNE,28,3.0,3.0,92,0.00,,---,0.02,VWS V14.01,2013-10-15 02:08:00,
2013-10-14 22:09:00,64.5,62.1,30.10,NNE,18,0.0,5.0,92,0.00,,---,0.02,VWS V14.01,2013-10-15 02:09:00,
2013-10-14 22:10:00,64.5,62.1,30.10,NNE,18,0.0,5.0,92,0.00,,---,0.02,VWS V14.01,2013-10-15 02:10:00,
2013-10-14 22:11:00,64.5,61.8,30.10,NNE,18,0.0,0.0,91,0.00,,---,0.02,VWS V14.01,2013-10-15 02:11:00,
2013-10-14 22:12:00,64.5,61.8,30.10,NNE,23,1.0,1.0,91,0.00,,---,0.02,VWS V14.01,2013-10-15 02:12:00,
2013-10-14 22:13:00,64.5,62.1,30.10,NNE,23,0.0,1.0,92,0.00,,---,0.02,VWS V14.01,2013-10-15 02:13:00,
2013-10-14 22:14:00,64.5,61.8,30.10,NNE,24,0.0,1.0,91,0.00,,---,0.02,VWS V14.01,2013-10-15 02:14:00,
2013-10-14 22:15:00,64.5,61.8,30.10,North,0,1.0,4.0,91,0.00,,---,0.02,VWS V14.01,2013-10-15 02:15:00,
2013-10-14 22:16:00,64.5,62.1,30.10,NNE,31,5.0,5.0,92,0.00,,---,0.02,VWS V14.01,2013-10-15 02:16:00,
2013-10-14 22:17:00,64.3,61.6,30.10,NNE,32,3.0,5.0,91,0.00,,---,0.02,VWS V14.01,2013-10-15 02:17:00,
2013-10-14 22:18:00,64.3,61.6,30.10,West,264,0.0,5.0,91,0.00,,---,0.02,VWS V14.01,2013-10-15 02:18:00,
2013-10-14 22:19:00,64.3,61.6,30.10,NNE,28,4.0,5.0,91,0.00,,---,0.02,VWS V14.01,2013-10-15 02:19:00,
2013-10-14 22:20:00,64.3,61.6,30.10,ENE,73,2.0,5.0,91,0.00,,---,0.02,VWS V14.01,2013-10-15 02:20:00,
2013-10-14 22:21:00,64.3,61.6,30.10,North,3,0.0,3.0,91,0.00,,---,0.02,VWS V14.01,2013-10-15 02:21:00,
2013-10-14 22:22:00,64.3,61.6,30.10,NNE,23,0.0,3.0,91,0.00,,---,0.02,VWS V14.01,2013-10-15 02:22:00,
2013-10-14 22:23:00,64.3,61.6,30.10,NNE,23,0.0,3.0,91,0.00,,---,0.02,VWS V14.01,2013-10-15 02:23:00,
2013-10-14 22:24:00,64.3,61.6,30.10,NNE,31,0.0,3.0,91,0.00,,---,0.02,VWS V14.01,2013-10-15 02:24:00,
2013-10-14 22:25:00,64.3,61.6,30.10,NNE,31,0.0,3.0,91,0.00,,---,0.02,VWS V14.01,2013-10-15 02:25:00,
2013-10-14 22:26:00,64.3,61.6,30.10,NNE,31,0.0,3.0,91,0.00,,---,0.02,VWS V14.01,2013-10-15 02:26:00,
2013-10-14 22:27:00,64.3,61.6,30.10,WNW,295,0.0,3.0,91,0.00,,---,0.02,VWS V14.01,2013-10-15 02:27:00,
2013-10-14 22:28:00,64.3,61.6,30.10,NE,34,1.0,3.0,91,0.00,,---,0.02,VWS V14.01,2013-10-15 02:28:00,
2013-10-14 22:29:00,64.3,61.6,30.10,NE,34,0.0,3.0,91,0.00,,---,0.02,VWS V14.01,2013-10-15 02:29:00,
2013-10-14 22:30:00,64.3,61.9,30.11,NNE,20,7.0,7.0,92,0.00,,---,0.02,VWS V14.01,2013-10-15 02:30:00,
2013-10-14 22:31:00,64.3,61.6,30.11,NNE,21,3.0,7.0,91,0.00,,---,0.02,VWS V14.01,2013-10-15 02:31:00,
2013-10-14 22:32:00,64.3,61.6,30.11,North,0,2.0,7.0,91,0.00,,---,0.02,VWS V14.01,2013-10-15 02:32:00,
2013-10-14 22:33:00,64.3,61.6,30.11,NNE,27,1.0,7.0,91,0.00,,---,0.02,VWS V14.01,2013-10-15 02:33:00,
2013-10-14 22:34:00,64.3,61.6,30.11,NNE,27,0.0,7.0,91,0.00,,---,0.02,VWS V14.01,2013-10-15 02:34:00,
2013-10-14 22:35:00,64.3,61.6,30.11,NE,37,3.0,7.0,91,0.00,,---,0.02,VWS V14.01,2013-10-15 02:35:00,
2013-10-14 22:36:00,64.2,61.5,30.11,NE,38,0.0,7.0,91,0.00,,---,0.02,VWS V14.01,2013-10-15 02:36:00,
2013-10-14 22:37:00,64.2,61.5,30.11,NE,38,0.0,7.0,91,0.00,,---,0.02,VWS V14.01,2013-10-15 02:37:00,
2013-10-14 22:38:00,64.2,61.5,30.11,NE,38,4.0,7.0,91,0.00,,---,0.02,VWS V14.01,2013-10-15 02:38:00,
2013-10-14 22:39:00,64.2,61.5,30.11,North,0,0.0,7.0,91,0.00,,---,0.02,VWS V14.01,2013-10-15 02:39:00,
2013-10-14 22:40:00,64.2,61.5,30.11,North,11,5.0,7.0,91,0.00,,---,0.02,VWS V14.01,2013-10-15 02:40:00,
2013-10-14 22:41:00,64.2,61.5,30.11,North,7,0.0,5.0,91,0.00,,---,0.02,VWS V14.01,2013-10-15 02:41:00,
2013-10-14 22:42:00,64.2,61.5,30.11,NE,51,0.0,5.0,91,0.00,,---,0.02,VWS V14.01,2013-10-15 02:42:00,
2013-10-14 22:43:00,64.2,61.5,30.11,NNE,17,2.0,5.0,91,0.00,,---,0.02,VWS V14.01,2013-10-15 02:43:00,
2013-10-14 22:44:00,64.2,61.5,30.11,NNE,17,0.0,5.0,91,0.00,,---,0.02,VWS V14.01,2013-10-15 02:44:00,
2013-10-14 22:45:00,64.2,61.5,30.11,NNE,17,0.0,5.0,91,0.00,,---,0.02,VWS V14.01,2013-10-15 02:45:00,
2013-10-14 22:46:00,64.2,61.5,30.11,ENE,65,0.0,5.0,91,0.00,,---,0.02,VWS V14.01,2013-10-15 02:46:00,
2013-10-14 22:47:00,64.2,61.8,30.11,NE,54,2.0,5.0,92,0.00,,---,0.02,VWS V14.01,2013-10-15 02:47:00,
2013-10-14 22:48:00,64.2,61.8,30.11,NE,54,0.0,5.0,92,0.00,,---,0.02,VWS V14.01,2013-10-15 02:48:00,
2013-10-14 22:49:00,64.2,61.8,30.11,ENE,68,3.0,5.0,92,0.00,,---,0.02,VWS V14.01,2013-10-15 02:49:00,
2013-10-14 22:50:00,64.2,61.8,30.11,North,0,1.0,5.0,92,0.00,,---,0.02,VWS V14.01,2013-10-15 02:50:00,
2013-10-14 22:51:00,64.0,61.3,30.11,NNE,14,5.0,5.0,91,0.00,,---,0.02,VWS V14.01,2013-10-15 02:51:00,
2013-10-14 22:52:00,64.0,61.3,30.11,NNE,24,1.0,7.0,91,0.00,,---,0.02,VWS V14.01,2013-10-15 02:52:00,
2013-10-14 22:53:00,64.0,61.3,30.11,NNE,16,0.0,7.0,91,0.00,,---,0.02,VWS V14.01,2013-10-15 02:53:00,
2013-10-14 22:54:00,64.0,61.3,30.11,NE,34,3.0,7.0,91,0.00,,---,0.02,VWS V14.01,2013-10-15 02:54:00,
2013-10-14 22:55:00,64.0,61.3,30.11,NNE,18,0.0,7.0,91,0.00,,---,0.02,VWS V14.01,2013-10-15 02:55:00,
2013-10-14 22:56:00,64.0,61.3,30.11,NNE,18,0.0,7.0,91,0.00,,---,0.02,VWS V14.01,2013-10-15 02:56:00,
2013-10-14 22:57:00,64.0,61.3,30.11,ESE,109,0.0,7.0,91,0.00,,---,0.02,VWS V14.01,2013-10-15 02:57:00,
2013-10-14 22:58:00,64.0,61.3,30.11,NNE,31,0.0,7.0,91,0.00,,---,0.02,VWS V14.01,2013-10-15 02:58:00,
2013-10-14 22:59:00,64.0,61.3,30.11,NNE,30,0.0,7.0,91,0.00,,---,0.02,VWS V14.01,2013-10-15 02:59:00,
2013-10-14 23:00:00,64.0,61.6,30.11,NNE,24,0.0,7.0,92,0.00,,---,0.02,VWS V14.01,2013-10-15 03:00:00,
2013-10-14 23:01:00,64.0,61.6,30.11,NE,40,2.0,2.0,92,0.00,,---,0.02,VWS V14.01,2013-10-15 03:01:00,
2013-10-14 23:02:00,64.0,61.3,30.11,NNE,28,0.0,6.0,91,0.00,,---,0.02,VWS V14.01,2013-10-15 03:02:00,
2013-10-14 23:03:00,64.0,61.6,30.11,WNW,295,0.0,6.0,92,0.00,,---,0.02,VWS V14.01,2013-10-15 03:03:00,
2013-10-14 23:04:00,64.0,61.6,30.11,WNW,295,0.0,6.0,92,0.00,,---,0.02,VWS V14.01,2013-10-15 03:04:00,
2013-10-14 23:05:00,63.9,61.5,30.11,NE,42,0.0,6.0,92,0.00,,---,0.02,VWS V14.01,2013-10-15 03:05:00,
2013-10-14 23:06:00,63.9,61.5,30.11,ESE,121,0.0,6.0,92,0.00,,---,0.02,VWS V14.01,2013-10-15 03:06:00,
2013-10-14 23:07:00,63.9,61.5,30.11,ESE,121,0.0,6.0,92,0.00,,---,0.02,VWS V14.01,2013-10-15 03:07:00,
2013-10-14 23:08:00,63.9,61.5,30.11,ESE,121,0.0,6.0,92,0.00,,---,0.02,VWS V14.01,2013-10-15 03:08:00,
2013-10-14 23:09:00,63.9,61.2,30.11,NE,35,5.0,6.0,91,0.00,,---,0.02,VWS V14.01,2013-10-15 03:09:00,
2013-10-14 23:10:00,63.9,61.2,30.11,NE,40,0.0,6.0,91,0.00,,---,0.02,VWS V14.01,2013-10-15 03:10:00,
2013-10-14 23:11:00,63.9,61.5,30.11,NE,40,0.0,0.0,92,0.00,,---,0.02,VWS V14.01,2013-10-15 03:11:00,
2013-10-14 23:12:00,63.9,61.5,30.11,NE,40,0.0,0.0,92,0.00,,---,0.02,VWS V14.01,2013-10-15 03:12:00,
2013-10-14 23:13:00,63.9,61.5,30.11,NE,40,0.0,0.0,92,0.00,,---,0.02,VWS V14.01,2013-10-15 03:13:00,
2013-10-14 23:14:00,63.7,61.3,30.11,NE,40,0.0,0.0,92,0.00,,---,0.02,VWS V14.01,2013-10-15 03:14:00,
2013-10-14 23:15:00,63.7,61.0,30.10,NE,37,3.0,3.0,91,0.00,,---,0.02,VWS V14.01,2013-10-15 03:15:00,
2013-10-14 23:16:00,63.7,61.3,30.10,NNE,23,0.0,5.0,92,0.00,,---,0.02,VWS V14.01,2013-10-15 03:16:00,
2013-10-14 23:17:00,63.7,61.3,30.10,NNE,23,0.0,5.0,92,0.00,,---,0.02,VWS V14.01,2013-10-15 03:17:00,
2013-10-14 23:18:00,63.7,61.3,30.10,NNE,23,0.0,5.0,92,0.00,,---,0.02,VWS V14.01,2013-10-15 03:18:00,
2013-10-14 23:19:00,63.7,61.3,30.10,NNE,23,0.0,5.0,92,0.00,,---,0.02,VWS V14.01,2013-10-15 03:19:00,
2013-10-14 23:20:00,63.7,61.3,30.10,NNE,23,0.0,5.0,92,0.00,,---,0.02,VWS V14.01,2013-10-15 03:20:00,
2013-10-14 23:21:00,63.7,61.3,30.10,NE,37,0.0,2.0,92,0.00,,---,0.02,VWS V14.01,2013-10-15 03:21:00,
2013-10-14 23:22:00,63.5,61.1,30.10,NE,37,0.0,2.0,92,0.00,,---,0.02,VWS V14.01,2013-10-15 03:22:00,
2013-10-14 23:23:00,63.5,61.1,30.10,NE,37,0.0,2.0,92,0.00,,---,0.02,VWS V14.01,2013-10-15 03:23:00,
2013-10-14 23:24:00,63.5,61.1,30.10,NE,37,0.0,2.0,92,0.00,,---,0.02,VWS V14.01,2013-10-15 03:24:00,
2013-10-14 23:25:00,63.5,61.1,30.10,NNE,25,0.0,2.0,92,0.00,,---,0.02,VWS V14.01,2013-10-15 03:25:00,
2013-10-14 23:26:00,63.5,61.1,30.10,NNE,28,0.0,2.0,92,0.00,,---,0.02,VWS V14.01,2013-10-15 03:26:00,
2013-10-14 23:27:00,63.5,61.1,30.10,NNE,28,0.0,2.0,92,0.00,,---,0.02,VWS V14.01,2013-10-15 03:27:00,
2013-10-14 23:28:00,63.5,61.1,30.10,NNE,28,0.0,2.0,92,0.00,,---,0.02,VWS V14.01,2013-10-15 03:28:00,
2013-10-14 23:29:00,63.4,61.0,30.10,NNE,28,0.0,2.0,92,0.00,,---,0.02,VWS V14.01,2013-10-15 03:29:00,
2013-10-14 23:30:00,63.4,61.0,30.10,NNE,28,0.0,2.0,92,0.00,,---,0.02,VWS V14.01,2013-10-15 03:30:00,
2013-10-14 23:31:00,63.4,61.0,30.10,NNE,27,0.0,0.0,92,0.00,,---,0.02,VWS V14.01,2013-10-15 03:31:00,
2013-10-14 23:32:00,63.4,61.0,30.10,NNE,16,0.0,0.0,92,0.00,,---,0.02,VWS V14.01,2013-10-15 03:32:00,
2013-10-14 23:33:00,63.4,61.0,30.10,NNE,16,0.0,0.0,92,0.00,,---,0.02,VWS V14.01,2013-10-15 03:33:00,
2013-10-14 23:34:00,63.4,61.3,30.10,NNE,16,0.0,0.0,93,0.00,,---,0.02,VWS V14.01,2013-10-15 03:34:00,
2013-10-14 23:35:00,63.4,61.3,30.10,NNE,17,0.0,2.0,93,0.00,,---,0.02,VWS V14.01,2013-10-15 03:35:00,
2013-10-14 23:36:00,63.2,61.2,30.10,NNE,30,3.0,3.0,93,0.00,,---,0.02,VWS V14.01,2013-10-15 03:36:00,
2013-10-14 23:37:00,63.2,61.2,30.10,NNE,28,0.0,3.0,93,0.00,,---,0.02,VWS V14.01,2013-10-15 03:37:00,
2013-10-14 23:38:00,63.2,60.8,30.10,NNE,28,0.0,3.0,92,0.00,,---,0.02,VWS V14.01,2013-10-15 03:38:00,
2013-10-14 23:39:00,63.2,61.2,30.10,NNE,28,0.0,3.0,93,0.00,,---,0.02,VWS V14.01,2013-10-15 03:39:00,
2013-10-14 23:40:00,63.2,60.8,30.10,NNE,28,0.0,3.0,92,0.00,,---,0.02,VWS V14.01,2013-10-15 03:40:00,
2013-10-14 23:41:00,63.2,60.8,30.10,NNE,28,0.0,0.0,92,0.00,,---,0.02,VWS V14.01,2013-10-15 03:41:00,
2013-10-14 23:42:00,63.2,61.2,30.10,NNE,28,0.0,0.0,93,0.00,,---,0.02,VWS V14.01,2013-10-15 03:42:00,
2013-10-14 23:43:00,63.1,61.0,30.10,NNE,28,0.0,0.0,93,0.00,,---,0.02,VWS V14.01,2013-10-15 03:43:00,
2013-10-14 23:44:00,63.1,61.0,30.10,NNE,28,0.0,0.0,93,0.00,,---,0.02,VWS V14.01,2013-10-15 03:44:00,
2013-10-14 23:45:00,63.1,61.0,30.10,NNE,31,0.0,0.0,93,0.00,,---,0.02,VWS V14.01,2013-10-15 03:45:00,
2013-10-14 23:46:00,63.1,61.0,30.10,NNE,31,0.0,0.0,93,0.00,,---,0.02,VWS V14.01,2013-10-15 03:46:00,
2013-10-14 23:47:00,63.1,61.0,30.10,NNE,31,0.0,0.0,93,0.00,,---,0.02,VWS V14.01,2013-10-15 03:47:00,
2013-10-14 23:48:00,63.1,61.0,30.10,NNE,31,0.0,0.0,93,0.00,,---,0.02,VWS V14.01,2013-10-15 03:48:00,
2013-10-14 23:49:00,62.9,60.8,30.10,NNE,31,0.0,0.0,93,0.00,,---,0.02,VWS V14.01,2013-10-15 03:49:00,
2013-10-14 23:50:00,62.9,60.8,30.10,NNE,31,0.0,0.0,93,0.00,,---,0.02,VWS V14.01,2013-10-15 03:50:00,
2013-10-14 23:51:00,62.9,60.8,30.10,NNE,31,0.0,0.0,93,0.00,,---,0.02,VWS V14.01,2013-10-15 03:51:00,
2013-10-14 23:52:00,62.9,60.8,30.10,NNE,31,0.0,0.0,93,0.00,,---,0.02,VWS V14.01,2013-10-15 03:52:00,
2013-10-14 23:53:00,62.9,60.8,30.10,NNE,31,0.0,0.0,93,0.00,,---,0.02,VWS V14.01,2013-10-15 03:53:00,
2013-10-14 23:54:00,62.9,61.2,30.10,NNE,31,0.0,0.0,94,0.00,,---,0.02,VWS V14.01,2013-10-15 03:54:00,
2013-10-14 23:55:00,62.9,60.8,30.10,NNE,31,0.0,0.0,93,0.00,,---,0.02,VWS V14.01,2013-10-15 03:55:00,
2013-10-14 23:56:00,62.9,60.8,30.10,NNE,31,0.0,0.0,93,0.00,,---,0.02,VWS V14.01,2013-10-15 03:56:00,
2013-10-14 23:57:00,62.7,60.7,30.10,NNE,31,0.0,0.0,93,0.00,,---,0.02,VWS V14.01,2013-10-15 03:57:00,
2013-10-14 23:58:00,62.7,60.7,30.10,NNE,31,0.0,0.0,93,0.00,,---,0.02,VWS V14.01,2013-10-15 03:58:00,
2013-10-14 23:59:00,62.7,61.0,30.10,NNE,31,0.0,0.0,94,0.00,,---,0.02,VWS V14.01,2013-10-15 03:59:00,